Time,TemperatureF,DewpointF,PressureIn,WindDirection,WindDirectionDegrees,WindSpeedMPH,WindSpeedGustMPH,Humidity,HourlyPrecipIn,Conditions,Clouds,dailyrainin,SoftwareType,DateUTC
2013-02-26 00:00:00,33.8,33.8,30.19,South,186,0.0,0.0,100,0.00,,CLR,0.00,VWS V14.01,2013-02-26 05:00:00,
2013-02-26 00:05:00,33.5,33.5,30.19,South,186,0.0,0.0,100,0.00,,CLR,0.00,VWS V14.01,2013-02-26 05:05:00,
2013-02-26 00:10:00,33.4,33.4,30.19,South,186,0.0,0.0,100,0.00,,CLR,0.00,VWS V14.01,2013-02-26 05:10:00,
2013-02-26 00:15:00,33.2,33.2,30.19,South,186,0.0,0.0,100,0.00,,,0.00,VWS V14.01,2013-02-26 05:15:00,
2013-02-26 00:20:00,33.2,33.2,30.20,South,186,0.0,0.0,100,0.00,,,0.00,VWS V14.01,2013-02-26 05:20:00,
2013-02-26 00:25:00,33.3,33.3,30.20,WNW,293,1.0,2.0,100,0.00,,,0.00,VWS V14.01,2013-02-26 05:25:00,
2013-02-26 00:30:00,33.0,33.0,30.21,NW,312,2.0,3.0,100,0.00,,,0.00,VWS V14.01,2013-02-26 05:30:00,
2013-02-26 00:35:00,32.3,32.3,30.22,WNW,288,2.0,3.0,100,0.00,,,0.00,VWS V14.01,2013-02-26 05:35:00,
2013-02-26 00:40:00,32.0,32.0,30.22,WNW,290,4.0,4.0,100,0.00,,,0.00,VWS V14.01,2013-02-26 05:40:00,
2013-02-26 00:45:00,31.6,31.6,30.23,WNW,298,4.0,5.0,100,0.00,,,0.00,VWS V14.01,2013-02-26 05:45:00,
2013-02-26 00:50:00,31.3,31.3,30.22,WNW,299,3.0,4.0,100,0.00,,,0.00,VWS V14.01,2013-02-26 05:50:00,
2013-02-26 00:55:00,31.2,31.2,30.21,WNW,298,1.0,2.0,100,0.00,,,0.00,VWS V14.01,2013-02-26 05:55:00,
2013-02-26 01:00:00,31.1,31.1,30.20,WNW,296,0.0,0.0,100,0.00,,,0.00,VWS V14.01,2013-02-26 06:00:00,
2013-02-26 01:05:00,31.0,31.0,30.20,WNW,297,0.0,0.0,100,0.00,,,0.00,VWS V14.01,2013-02-26 06:05:00,
2013-02-26 01:10:00,30.9,30.9,30.21,WNW,299,1.0,2.0,100,0.00,,,0.00,VWS V14.01,2013-02-26 06:10:00,
2013-02-26 01:15:00,30.8,30.8,30.21,NW,304,2.0,2.0,100,0.00,,,0.00,VWS V14.01,2013-02-26 06:15:00,
2013-02-26 01:20:00,31.2,31.2,30.22,NW,309,1.0,2.0,100,0.00,,,0.00,VWS V14.01,2013-02-26 06:20:00,
2013-02-26 01:25:00,31.2,31.2,30.21,NW,309,0.0,0.0,100,0.00,,,0.00,VWS V14.01,2013-02-26 06:25:00,
2013-02-26 01:30:00,31.2,31.2,30.20,NW,309,0.0,0.0,100,0.00,,,0.00,VWS V14.01,2013-02-26 06:30:00,
2013-02-26 01:35:00,31.1,31.1,30.20,NW,309,0.0,0.0,100,0.00,,,0.00,VWS V14.01,2013-02-26 06:35:00,
2013-02-26 01:40:00,30.9,30.9,30.20,NE,41,1.0,1.0,100,0.00,,,0.00,VWS V14.01,2013-02-26 06:40:00,
2013-02-26 01:45:00,30.8,30.8,30.20,NE,42,1.0,1.0,100,0.00,,,0.00,VWS V14.01,2013-02-26 06:45:00,
2013-02-26 01:50:00,30.8,30.8,30.22,NE,42,0.0,0.0,100,0.00,,,0.00,VWS V14.01,2013-02-26 06:50:00,
2013-02-26 01:55:00,30.9,30.9,30.22,NE,42,0.0,0.0,100,0.00,,,0.00,VWS V14.01,2013-02-26 06:55:00,
2013-02-26 02:00:00,31.2,31.2,30.23,NE,42,0.0,0.0,100,0.00,,,0.00,VWS V14.01,2013-02-26 07:00:00,
2013-02-26 02:05:00,31.4,31.4,30.23,NNE,19,0.0,0.0,100,0.00,,,0.00,VWS V14.01,2013-02-26 07:05:00,
2013-02-26 02:10:00,31.4,31.4,30.23,WNW,303,2.0,2.0,100,0.00,,,0.00,VWS V14.01,2013-02-26 07:10:00,
2013-02-26 02:14:00,31.2,31.2,30.23,WNW,293,1.0,1.0,100,0.00,,,0.00,VWS V14.01,2013-02-26 07:14:00,
2013-02-26 02:15:00,31.2,31.2,30.23,WNW,294,0.0,1.0,100,0.00,,,0.00,VWS V14.01,2013-02-26 07:15:00,
2013-02-26 02:16:00,31.2,31.2,30.23,WNW,293,1.0,1.0,100,0.00,,,0.00,VWS V14.01,2013-02-26 07:16:00,
2013-02-26 02:17:00,31.1,31.1,30.23,WNW,293,0.0,1.0,100,0.00,,,0.00,VWS V14.01,2013-02-26 07:17:00,
2013-02-26 02:18:00,31.1,31.1,30.23,WNW,295,1.0,1.0,100,0.00,,,0.00,VWS V14.01,2013-02-26 07:18:00,
2013-02-26 02:19:00,31.0,31.0,30.23,WNW,298,2.0,2.0,100,0.00,,,0.00,VWS V14.01,2013-02-26 07:19:00,
2013-02-26 02:20:00,31.1,31.1,30.23,WNW,298,1.0,2.0,100,0.00,,,0.00,VWS V14.01,2013-02-26 07:20:00,
2013-02-26 02:21:00,30.9,30.9,30.23,WNW,302,2.0,2.0,100,0.00,,,0.00,VWS V14.01,2013-02-26 07:21:00,
2013-02-26 02:22:00,30.9,30.9,30.23,NW,309,1.0,2.0,100,0.00,,,0.00,VWS V14.01,2013-02-26 07:22:00,
2013-02-26 02:23:00,30.8,30.8,30.23,NW,309,1.0,2.0,100,0.00,,,0.00,VWS V14.01,2013-02-26 07:23:00,
2013-02-26 02:24:00,30.7,30.7,30.22,NW,309,1.0,2.0,100,0.00,,,0.00,VWS V14.01,2013-02-26 07:24:00,
2013-02-26 02:25:00,30.7,30.7,30.22,NW,309,1.0,2.0,100,0.00,,,0.00,VWS V14.01,2013-02-26 07:25:00,
2013-02-26 02:26:00,30.6,30.6,30.23,NW,309,1.0,2.0,100,0.00,,,0.00,VWS V14.01,2013-02-26 07:26:00,
2013-02-26 02:27:00,30.6,30.6,30.22,NW,309,1.0,2.0,100,0.00,,,0.00,VWS V14.01,2013-02-26 07:27:00,
2013-02-26 02:28:00,30.5,30.5,30.22,NW,309,1.0,1.0,100,0.00,,,0.00,VWS V14.01,2013-02-26 07:28:00,
2013-02-26 02:29:00,30.5,30.5,30.22,NW,309,1.0,2.0,100,0.00,,,0.00,VWS V14.01,2013-02-26 07:29:00,
2013-02-26 02:30:00,30.5,30.5,30.22,NW,309,1.0,2.0,100,0.00,,,0.00,VWS V14.01,2013-02-26 07:30:00,
2013-02-26 02:31:00,30.4,30.4,30.22,NW,313,2.0,2.0,100,0.00,,,0.00,VWS V14.01,2013-02-26 07:31:00,
2013-02-26 02:32:00,30.3,30.3,30.22,NW,320,1.0,2.0,100,0.00,,,0.00,VWS V14.01,2013-02-26 07:32:00,
2013-02-26 02:33:00,30.3,30.3,30.22,NW,323,1.0,2.0,100,0.00,,,0.00,VWS V14.01,2013-02-26 07:33:00,
2013-02-26 02:34:00,30.2,30.2,30.22,NW,323,1.0,2.0,100,0.00,,,0.00,VWS V14.01,2013-02-26 07:34:00,
2013-02-26 02:35:00,30.3,30.3,30.22,NW,323,1.0,2.0,100,0.00,,,0.00,VWS V14.01,2013-02-26 07:35:00,
2013-02-26 02:36:00,30.1,30.1,30.22,NW,323,0.0,1.0,100,0.00,,,0.00,VWS V14.01,2013-02-26 07:36:00,
2013-02-26 02:37:00,30.1,30.1,30.22,NNW,336,2.0,2.0,100,0.00,,,0.00,VWS V14.01,2013-02-26 07:37:00,
2013-02-26 02:38:00,30.1,30.1,30.22,NNW,343,1.0,2.0,100,0.00,,,0.00,VWS V14.01,2013-02-26 07:38:00,
2013-02-26 02:39:00,30.0,30.0,30.22,NNW,348,1.0,2.0,100,0.00,,,0.00,VWS V14.01,2013-02-26 07:39:00,
2013-02-26 02:40:00,30.0,30.0,30.22,NNW,346,1.0,2.0,100,0.00,,,0.00,VWS V14.01,2013-02-26 07:40:00,
2013-02-26 02:41:00,30.0,30.0,30.22,North,0,2.0,3.0,100,0.00,,,0.00,VWS V14.01,2013-02-26 07:41:00,
2013-02-26 02:42:00,29.9,29.9,30.22,North,0,2.0,3.0,100,0.00,,,0.00,VWS V14.01,2013-02-26 07:42:00,
2013-02-26 02:43:00,29.9,29.9,30.22,NNE,22,3.0,3.0,100,0.00,,,0.00,VWS V14.01,2013-02-26 07:43:00,
2013-02-26 02:44:00,29.8,29.8,30.22,NNE,22,3.0,3.0,100,0.00,,,0.00,VWS V14.01,2013-02-26 07:44:00,
2013-02-26 02:45:00,29.8,29.8,30.22,NNE,22,3.0,3.0,100,0.00,,,0.00,VWS V14.01,2013-02-26 07:45:00,
2013-02-26 02:46:00,29.7,29.7,30.22,NNE,22,2.0,3.0,100,0.00,,,0.00,VWS V14.01,2013-02-26 07:46:00,
2013-02-26 02:47:00,29.7,29.7,30.22,NNE,22,3.0,3.0,100,0.00,,,0.00,VWS V14.01,2013-02-26 07:47:00,
2013-02-26 02:48:00,29.7,29.7,30.22,NNE,22,3.0,3.0,100,0.00,,,0.00,VWS V14.01,2013-02-26 07:48:00,
2013-02-26 02:49:00,29.6,29.6,30.22,NNE,22,3.0,3.0,100,0.00,,,0.00,VWS V14.01,2013-02-26 07:49:00,
2013-02-26 02:50:00,29.6,29.6,30.22,NNE,22,2.0,3.0,100,0.00,,,0.00,VWS V14.01,2013-02-26 07:50:00,
2013-02-26 02:51:00,29.7,29.7,30.22,NNE,22,2.0,3.0,100,0.00,,,0.00,VWS V14.01,2013-02-26 07:51:00,
2013-02-26 02:52:00,29.7,29.7,30.22,NNE,22,3.0,3.0,100,0.00,,,0.00,VWS V14.01,2013-02-26 07:52:00,
2013-02-26 02:53:00,29.7,29.7,30.22,NNE,22,2.0,3.0,100,0.00,,,0.00,VWS V14.01,2013-02-26 07:53:00,
2013-02-26 02:54:00,29.7,29.7,30.22,NNE,22,2.0,3.0,100,0.00,,,0.00,VWS V14.01,2013-02-26 07:54:00,
2013-02-26 02:55:00,29.8,29.8,30.22,NNE,22,3.0,3.0,100,0.00,,,0.00,VWS V14.01,2013-02-26 07:55:00,
2013-02-26 02:56:00,29.9,29.9,30.22,NNE,22,3.0,3.0,100,0.00,,,0.00,VWS V14.01,2013-02-26 07:56:00,
2013-02-26 02:57:00,29.9,29.9,30.22,NNE,22,3.0,4.0,100,0.00,,,0.00,VWS V14.01,2013-02-26 07:57:00,
2013-02-26 02:58:00,30.0,30.0,30.22,NNE,22,3.0,3.0,100,0.00,,,0.00,VWS V14.01,2013-02-26 07:58:00,
2013-02-26 02:59:00,30.0,30.0,30.22,NNE,22,2.0,3.0,100,0.00,,,0.00,VWS V14.01,2013-02-26 07:59:00,
2013-02-26 03:00:00,30.0,30.0,30.22,NNE,22,2.0,3.0,100,0.00,,,0.00,VWS V14.01,2013-02-26 08:00:00,
2013-02-26 03:01:00,30.0,30.0,30.22,NNE,22,2.0,2.0,100,0.00,,,0.00,VWS V14.01,2013-02-26 08:01:00,
2013-02-26 03:02:00,30.0,30.0,30.22,NNE,22,2.0,2.0,100,0.00,,,0.00,VWS V14.01,2013-02-26 08:02:00,
2013-02-26 03:03:00,30.1,30.1,30.22,NNE,22,2.0,2.0,100,0.00,,,0.00,VWS V14.01,2013-02-26 08:03:00,
2013-02-26 03:04:00,30.0,30.0,30.22,NNE,22,2.0,3.0,100,0.00,,,0.00,VWS V14.01,2013-02-26 08:04:00,
2013-02-26 03:05:00,30.0,30.0,30.22,NNE,22,2.0,2.0,100,0.00,,,0.00,VWS V14.01,2013-02-26 08:05:00,
2013-02-26 03:06:00,30.0,30.0,30.22,NNE,22,2.0,2.0,100,0.00,,,0.00,VWS V14.01,2013-02-26 08:06:00,
2013-02-26 03:07:00,30.0,30.0,30.22,NNE,22,2.0,2.0,100,0.00,,,0.00,VWS V14.01,2013-02-26 08:07:00,
2013-02-26 03:08:00,30.0,30.0,30.21,NNE,22,2.0,2.0,100,0.00,,,0.00,VWS V14.01,2013-02-26 08:08:00,
2013-02-26 03:09:00,29.9,29.9,30.21,NNE,22,2.0,3.0,100,0.00,,,0.00,VWS V14.01,2013-02-26 08:09:00,
2013-02-26 03:10:00,29.9,29.9,30.21,NNE,22,2.0,2.0,100,0.00,,,0.00,VWS V14.01,2013-02-26 08:10:00,
2013-02-26 03:11:00,29.9,29.9,30.21,NNE,22,2.0,2.0,100,0.00,,,0.00,VWS V14.01,2013-02-26 08:11:00,
2013-02-26 03:12:00,29.9,29.9,30.21,NNE,22,2.0,2.0,100,0.00,,,0.00,VWS V14.01,2013-02-26 08:12:00,
2013-02-26 03:13:00,29.9,29.9,30.21,NNE,22,1.0,2.0,100,0.00,,,0.00,VWS V14.01,2013-02-26 08:13:00,
2013-02-26 03:14:00,29.9,29.9,30.21,NNE,22,2.0,2.0,100,0.00,,,0.00,VWS V14.01,2013-02-26 08:14:00,
2013-02-26 03:15:00,29.9,29.9,30.21,NNE,22,2.0,3.0,100,0.00,,,0.00,VWS V14.01,2013-02-26 08:15:00,
2013-02-26 03:16:00,29.8,29.8,30.21,NE,45,2.0,3.0,100,0.00,,,0.00,VWS V14.01,2013-02-26 08:16:00,
2013-02-26 03:17:00,29.8,29.8,30.21,NE,45,2.0,3.0,100,0.00,,,0.00,VWS V14.01,2013-02-26 08:17:00,
2013-02-26 03:18:00,29.8,29.8,30.21,NE,45,2.0,3.0,100,0.00,,,0.00,VWS V14.01,2013-02-26 08:18:00,
2013-02-26 03:19:00,29.8,29.8,30.21,NE,45,2.0,3.0,100,0.00,,,0.00,VWS V14.01,2013-02-26 08:19:00,
2013-02-26 03:20:00,29.8,29.8,30.21,NE,45,2.0,2.0,100,0.00,,,0.00,VWS V14.01,2013-02-26 08:20:00,
2013-02-26 03:21:00,29.8,29.8,30.21,NE,45,2.0,2.0,100,0.00,,,0.00,VWS V14.01,2013-02-26 08:21:00,
2013-02-26 03:22:00,29.7,29.7,30.21,NE,45,2.0,2.0,100,0.00,,,0.00,VWS V14.01,2013-02-26 08:22:00,
2013-02-26 03:23:00,29.7,29.7,30.21,NE,45,2.0,2.0,100,0.00,,,0.00,VWS V14.01,2013-02-26 08:23:00,
2013-02-26 03:24:00,29.7,29.7,30.21,NE,45,2.0,3.0,100,0.00,,,0.00,VWS V14.01,2013-02-26 08:24:00,
2013-02-26 03:25:00,29.7,29.7,30.21,NE,45,2.0,3.0,100,0.00,,,0.00,VWS V14.01,2013-02-26 08:25:00,
2013-02-26 03:26:00,29.6,29.6,30.21,NE,45,3.0,3.0,100,0.00,,,0.00,VWS V14.01,2013-02-26 08:26:00,
2013-02-26 03:27:00,29.6,29.6,30.21,NE,45,3.0,3.0,100,0.00,,,0.00,VWS V14.01,2013-02-26 08:27:00,
2013-02-26 03:28:00,29.6,29.6,30.21,NE,45,3.0,4.0,100,0.00,,,0.00,VWS V14.01,2013-02-26 08:28:00,
2013-02-26 03:29:00,29.6,29.6,30.21,NE,45,2.0,3.0,100,0.00,,,0.00,VWS V14.01,2013-02-26 08:29:00,
2013-02-26 03:30:00,29.6,29.6,30.21,NE,45,2.0,3.0,100,0.00,,,0.00,VWS V14.01,2013-02-26 08:30:00,
2013-02-26 03:31:00,29.6,29.6,30.21,NE,45,2.0,3.0,100,0.00,,,0.00,VWS V14.01,2013-02-26 08:31:00,
2013-02-26 03:32:00,29.6,29.6,30.21,NE,45,2.0,3.0,100,0.00,,,0.00,VWS V14.01,2013-02-26 08:32:00,
2013-02-26 03:33:00,29.6,29.6,30.21,NE,45,2.0,3.0,100,0.00,,,0.00,VWS V14.01,2013-02-26 08:33:00,
2013-02-26 03:34:00,29.6,29.6,30.21,NE,45,2.0,3.0,100,0.00,,,0.00,VWS V14.01,2013-02-26 08:34:00,
2013-02-26 03:35:00,29.6,29.6,30.21,NE,45,2.0,2.0,100,0.00,,,0.00,VWS V14.01,2013-02-26 08:35:00,
2013-02-26 03:36:00,29.6,29.6,30.21,NE,45,2.0,2.0,100,0.00,,,0.00,VWS V14.01,2013-02-26 08:36:00,
2013-02-26 03:37:00,29.6,29.6,30.21,NE,45,2.0,3.0,100,0.00,,,0.00,VWS V14.01,2013-02-26 08:37:00,
2013-02-26 03:38:00,29.6,29.6,30.21,NE,45,2.0,3.0,100,0.00,,,0.00,VWS V14.01,2013-02-26 08:38:00,
2013-02-26 03:39:00,29.6,29.6,30.21,NE,45,2.0,3.0,100,0.00,,,0.00,VWS V14.01,2013-02-26 08:39:00,
2013-02-26 03:40:00,29.6,29.6,30.21,NE,45,2.0,3.0,100,0.00,,,0.00,VWS V14.01,2013-02-26 08:40:00,
2013-02-26 03:41:00,29.6,29.6,30.20,NE,45,2.0,3.0,100,0.00,,,0.00,VWS V14.01,2013-02-26 08:41:00,
2013-02-26 03:42:00,29.6,29.6,30.20,NE,45,2.0,3.0,100,0.00,,,0.00,VWS V14.01,2013-02-26 08:42:00,
2013-02-26 03:43:00,29.6,29.6,30.20,NE,45,2.0,2.0,100,0.00,,,0.00,VWS V14.01,2013-02-26 08:43:00,
2013-02-26 03:44:00,29.6,29.6,30.20,NE,45,2.0,2.0,100,0.00,,,0.00,VWS V14.01,2013-02-26 08:44:00,
2013-02-26 03:45:00,29.6,29.6,30.20,NE,45,2.0,2.0,100,0.00,,,0.00,VWS V14.01,2013-02-26 08:45:00,
2013-02-26 03:46:00,29.7,29.7,30.20,NE,45,2.0,2.0,100,0.00,,,0.00,VWS V14.01,2013-02-26 08:46:00,
2013-02-26 03:47:00,29.7,29.7,30.20,NE,45,2.0,3.0,100,0.00,,,0.00,VWS V14.01,2013-02-26 08:47:00,
2013-02-26 03:48:00,29.7,29.7,30.20,ENE,68,2.0,2.0,100,0.00,,,0.00,VWS V14.01,2013-02-26 08:48:00,
2013-02-26 03:49:00,29.7,29.7,30.20,ENE,68,2.0,2.0,100,0.00,,,0.00,VWS V14.01,2013-02-26 08:49:00,
2013-02-26 03:50:00,29.7,29.7,30.20,ENE,68,2.0,2.0,100,0.00,,,0.00,VWS V14.01,2013-02-26 08:50:00,
2013-02-26 03:51:00,29.7,29.7,30.20,NE,45,2.0,2.0,100,0.00,,,0.00,VWS V14.01,2013-02-26 08:51:00,
2013-02-26 03:52:00,29.7,29.7,30.20,NE,45,3.0,3.0,100,0.00,,,0.00,VWS V14.01,2013-02-26 08:52:00,
2013-02-26 03:53:00,29.8,29.8,30.20,NE,45,3.0,3.0,100,0.00,,,0.00,VWS V14.01,2013-02-26 08:53:00,
2013-02-26 03:54:00,29.9,29.9,30.20,NE,45,3.0,4.0,100,0.00,,,0.00,VWS V14.01,2013-02-26 08:54:00,
2013-02-26 03:55:00,30.0,30.0,30.20,NE,45,3.0,3.0,100,0.00,,,0.00,VWS V14.01,2013-02-26 08:55:00,
2013-02-26 03:56:00,30.0,30.0,30.20,NE,45,3.0,3.0,100,0.00,,,0.00,VWS V14.01,2013-02-26 08:56:00,
2013-02-26 03:57:00,30.1,30.1,30.20,NE,45,3.0,3.0,100,0.00,,,0.00,VWS V14.01,2013-02-26 08:57:00,
2013-02-26 03:58:00,30.1,30.1,30.19,NE,45,3.0,4.0,100,0.00,,,0.00,VWS V14.01,2013-02-26 08:58:00,
2013-02-26 03:59:00,30.1,30.1,30.20,NE,45,3.0,4.0,100,0.00,,,0.00,VWS V14.01,2013-02-26 08:59:00,
2013-02-26 04:00:00,30.0,30.0,30.20,NE,45,3.0,3.0,100,0.00,,,0.00,VWS V14.01,2013-02-26 09:00:00,
2013-02-26 04:01:00,30.1,30.1,30.19,NE,45,4.0,4.0,100,0.00,,,0.00,VWS V14.01,2013-02-26 09:01:00,
2013-02-26 04:02:00,30.1,30.1,30.19,NE,45,4.0,4.0,100,0.00,,,0.00,VWS V14.01,2013-02-26 09:02:00,
2013-02-26 04:03:00,30.1,30.1,30.19,NE,45,3.0,4.0,100,0.00,,,0.00,VWS V14.01,2013-02-26 09:03:00,
2013-02-26 04:04:00,30.1,30.1,30.19,NE,45,4.0,4.0,100,0.00,,,0.00,VWS V14.01,2013-02-26 09:04:00,
2013-02-26 04:05:00,30.1,30.1,30.19,NE,45,4.0,4.0,100,0.00,,,0.00,VWS V14.01,2013-02-26 09:05:00,
2013-02-26 04:06:00,30.1,30.1,30.19,NE,45,3.0,4.0,100,0.00,,,0.00,VWS V14.01,2013-02-26 09:06:00,
2013-02-26 04:07:00,30.1,30.1,30.19,NE,45,3.0,4.0,100,0.00,,,0.00,VWS V14.01,2013-02-26 09:07:00,
2013-02-26 04:08:00,30.1,30.1,30.19,NE,45,3.0,4.0,100,0.00,,,0.00,VWS V14.01,2013-02-26 09:08:00,
2013-02-26 04:09:00,30.1,30.1,30.20,NE,45,4.0,4.0,100,0.00,,,0.00,VWS V14.01,2013-02-26 09:09:00,
2013-02-26 04:10:00,30.2,30.2,30.20,NE,45,4.0,4.0,100,0.00,,,0.00,VWS V14.01,2013-02-26 09:10:00,
2013-02-26 04:11:00,30.2,30.2,30.20,NE,45,4.0,5.0,100,0.00,,,0.00,VWS V14.01,2013-02-26 09:11:00,
2013-02-26 04:12:00,30.3,30.3,30.20,NE,45,4.0,5.0,100,0.00,,,0.00,VWS V14.01,2013-02-26 09:12:00,
2013-02-26 04:13:00,30.3,30.3,30.19,NE,45,4.0,5.0,100,0.00,,,0.00,VWS V14.01,2013-02-26 09:13:00,
2013-02-26 04:14:00,30.3,30.3,30.19,NE,45,4.0,5.0,100,0.00,,,0.00,VWS V14.01,2013-02-26 09:14:00,
2013-02-26 04:15:00,30.4,30.4,30.19,NE,45,5.0,5.0,100,0.00,,,0.00,VWS V14.01,2013-02-26 09:15:00,
2013-02-26 04:16:00,30.4,30.4,30.19,NE,45,5.0,5.0,100,0.00,,,0.00,VWS V14.01,2013-02-26 09:16:00,
2013-02-26 04:17:00,30.4,30.4,30.19,NE,45,5.0,5.0,100,0.00,,,0.00,VWS V14.01,2013-02-26 09:17:00,
2013-02-26 04:18:00,30.4,30.4,30.19,NE,45,5.0,5.0,100,0.00,,,0.00,VWS V14.01,2013-02-26 09:18:00,
2013-02-26 04:19:00,30.4,30.4,30.19,NE,45,4.0,5.0,100,0.00,,,0.00,VWS V14.01,2013-02-26 09:19:00,
2013-02-26 04:20:00,30.4,30.4,30.19,NE,45,4.0,4.0,100,0.00,,,0.00,VWS V14.01,2013-02-26 09:20:00,
2013-02-26 04:21:00,30.4,30.4,30.19,NE,45,4.0,4.0,100,0.00,,,0.00,VWS V14.01,2013-02-26 09:21:00,
2013-02-26 04:22:00,30.4,30.4,30.19,NE,45,4.0,5.0,100,0.00,,,0.00,VWS V14.01,2013-02-26 09:22:00,
2013-02-26 04:23:00,30.5,30.5,30.19,NE,45,4.0,4.0,100,0.00,,,0.00,VWS V14.01,2013-02-26 09:23:00,
2013-02-26 04:24:00,30.5,30.5,30.19,NE,45,4.0,4.0,100,0.00,,,0.00,VWS V14.01,2013-02-26 09:24:00,
2013-02-26 04:25:00,30.5,30.5,30.19,NE,45,4.0,4.0,100,0.00,,,0.00,VWS V14.01,2013-02-26 09:25:00,
2013-02-26 04:26:00,30.5,30.5,30.19,NE,45,4.0,4.0,100,0.00,,,0.00,VWS V14.01,2013-02-26 09:26:00,
2013-02-26 04:27:00,30.5,30.5,30.19,NE,45,4.0,4.0,100,0.00,,,0.00,VWS V14.01,2013-02-26 09:27:00,
2013-02-26 04:28:00,30.5,30.5,30.19,NE,45,4.0,4.0,100,0.00,,,0.00,VWS V14.01,2013-02-26 09:28:00,
2013-02-26 04:29:00,30.5,30.5,30.19,NE,45,3.0,4.0,100,0.00,,,0.00,VWS V14.01,2013-02-26 09:29:00,
2013-02-26 04:30:00,30.5,30.5,30.19,NE,45,3.0,4.0,100,0.00,,,0.00,VWS V14.01,2013-02-26 09:30:00,
2013-02-26 04:31:00,30.5,30.5,30.19,NE,45,3.0,3.0,100,0.00,,,0.00,VWS V14.01,2013-02-26 09:31:00,
2013-02-26 04:32:00,30.5,30.5,30.19,NE,45,3.0,4.0,100,0.00,,,0.00,VWS V14.01,2013-02-26 09:32:00,
2013-02-26 04:33:00,30.6,30.6,30.19,NE,45,3.0,4.0,100,0.00,,,0.00,VWS V14.01,2013-02-26 09:33:00,
2013-02-26 04:34:00,30.6,30.6,30.19,NE,45,3.0,4.0,100,0.00,,,0.00,VWS V14.01,2013-02-26 09:34:00,
2013-02-26 04:35:00,30.6,30.6,30.19,NE,45,4.0,4.0,100,0.00,,,0.00,VWS V14.01,2013-02-26 09:35:00,
2013-02-26 04:36:00,30.7,30.7,30.20,NNE,22,4.0,4.0,100,0.00,,,0.00,VWS V14.01,2013-02-26 09:36:00,
2013-02-26 04:37:00,30.7,30.7,30.20,NNE,22,3.0,4.0,100,0.00,,,0.00,VWS V14.01,2013-02-26 09:37:00,
2013-02-26 04:38:00,30.7,30.7,30.20,NNE,22,3.0,4.0,100,0.00,,,0.00,VWS V14.01,2013-02-26 09:38:00,
2013-02-26 04:39:00,30.7,30.7,30.20,NNE,22,3.0,4.0,100,0.00,,,0.00,VWS V14.01,2013-02-26 09:39:00,
2013-02-26 04:40:00,30.7,30.7,30.19,NNE,22,4.0,4.0,100,0.00,,,0.00,VWS V14.01,2013-02-26 09:40:00,
2013-02-26 04:41:00,30.8,30.8,30.19,NNE,22,4.0,5.0,100,0.00,,,0.00,VWS V14.01,2013-02-26 09:41:00,
2013-02-26 04:42:00,30.7,30.7,30.19,NNE,22,5.0,5.0,100,0.00,,,0.00,VWS V14.01,2013-02-26 09:42:00,
2013-02-26 04:43:00,30.7,30.7,30.19,NNE,22,5.0,6.0,100,0.00,,,0.00,VWS V14.01,2013-02-26 09:43:00,
2013-02-26 04:44:00,30.7,30.7,30.19,NNE,22,5.0,6.0,100,0.00,,,0.00,VWS V14.01,2013-02-26 09:44:00,
2013-02-26 04:45:00,30.7,30.7,30.19,NNE,22,6.0,7.0,100,0.00,,,0.00,VWS V14.01,2013-02-26 09:45:00,
2013-02-26 04:46:00,30.7,30.7,30.19,NE,45,6.0,7.0,100,0.00,,,0.00,VWS V14.01,2013-02-26 09:46:00,
2013-02-26 04:47:00,30.8,30.8,30.19,NE,45,6.0,7.0,100,0.00,,,0.00,VWS V14.01,2013-02-26 09:47:00,
2013-02-26 04:48:00,30.8,30.8,30.18,NNE,22,7.0,7.0,100,0.00,,,0.00,VWS V14.01,2013-02-26 09:48:00,
2013-02-26 04:49:00,30.9,30.9,30.18,NE,45,7.0,8.0,100,0.00,,,0.00,VWS V14.01,2013-02-26 09:49:00,
2013-02-26 04:50:00,31.0,31.0,30.18,NE,45,7.0,8.0,100,0.00,,,0.00,VWS V14.01,2013-02-26 09:50:00,
2013-02-26 04:51:00,31.0,31.0,30.19,NE,45,7.0,8.0,100,0.00,,,0.00,VWS V14.01,2013-02-26 09:51:00,
2013-02-26 04:52:00,31.0,31.0,30.18,NE,45,6.0,7.0,100,0.00,,,0.00,VWS V14.01,2013-02-26 09:52:00,
2013-02-26 04:53:00,31.1,31.1,30.19,NE,45,5.0,6.0,100,0.00,,,0.00,VWS V14.01,2013-02-26 09:53:00,
2013-02-26 04:54:00,31.1,31.1,30.19,NE,45,5.0,6.0,100,0.00,,,0.00,VWS V14.01,2013-02-26 09:54:00,
2013-02-26 04:55:00,31.1,31.1,30.19,NE,45,5.0,6.0,100,0.00,,,0.00,VWS V14.01,2013-02-26 09:55:00,
2013-02-26 04:56:00,31.2,31.2,30.19,NE,45,6.0,7.0,100,0.00,,,0.00,VWS V14.01,2013-02-26 09:56:00,
2013-02-26 04:57:00,31.2,31.2,30.19,NE,45,5.0,6.0,100,0.00,,,0.00,VWS V14.01,2013-02-26 09:57:00,
2013-02-26 04:58:00,31.2,31.2,30.19,NE,45,5.0,6.0,100,0.00,,,0.00,VWS V14.01,2013-02-26 09:58:00,
2013-02-26 04:59:00,31.3,31.3,30.19,NE,45,6.0,7.0,100,0.00,,,0.00,VWS V14.01,2013-02-26 09:59:00,
2013-02-26 05:00:00,31.3,31.3,30.19,NE,45,6.0,7.0,100,0.00,,,0.00,VWS V14.01,2013-02-26 10:00:00,
2013-02-26 05:01:00,31.3,31.3,30.19,NE,45,6.0,8.0,100,0.00,,,0.00,VWS V14.01,2013-02-26 10:01:00,
2013-02-26 05:03:00,31.4,31.4,30.19,NE,45,7.0,8.0,100,0.00,,,0.00,VWS V14.01,2013-02-26 10:03:00,
2013-02-26 05:04:00,31.4,31.4,30.19,NE,45,6.0,7.0,100,0.00,,,0.00,VWS V14.01,2013-02-26 10:04:00,
2013-02-26 05:05:00,31.4,31.4,30.19,NE,45,7.0,8.0,100,0.00,,,0.00,VWS V14.01,2013-02-26 10:05:00,
2013-02-26 05:06:00,31.5,31.5,30.19,NE,45,7.0,9.0,100,0.00,,,0.00,VWS V14.01,2013-02-26 10:06:00,
2013-02-26 05:07:00,31.5,31.5,30.19,NE,45,6.0,7.0,100,0.00,,,0.00,VWS V14.01,2013-02-26 10:07:00,
2013-02-26 05:08:00,31.5,31.5,30.19,NE,45,7.0,9.0,100,0.00,,,0.00,VWS V14.01,2013-02-26 10:08:00,
2013-02-26 05:09:00,31.5,31.5,30.19,NE,45,8.0,9.0,100,0.00,,,0.00,VWS V14.01,2013-02-26 10:09:00,
2013-02-26 05:10:00,31.5,31.5,30.18,NE,45,7.0,9.0,100,0.00,,,0.00,VWS V14.01,2013-02-26 10:10:00,
2013-02-26 05:11:00,31.6,31.6,30.18,NE,45,7.0,8.0,100,0.00,,,0.00,VWS V14.01,2013-02-26 10:11:00,
2013-02-26 05:12:00,31.6,31.6,30.18,NE,45,7.0,8.0,100,0.00,,,0.00,VWS V14.01,2013-02-26 10:12:00,
2013-02-26 05:13:00,31.6,31.6,30.18,NE,45,7.0,9.0,100,0.00,,,0.00,VWS V14.01,2013-02-26 10:13:00,
2013-02-26 05:14:00,31.6,31.6,30.18,NE,45,8.0,9.0,100,0.00,,,0.00,VWS V14.01,2013-02-26 10:14:00,
2013-02-26 05:15:00,31.6,31.6,30.18,NE,45,8.0,10.0,100,0.00,,,0.00,VWS V14.01,2013-02-26 10:15:00,
2013-02-26 05:16:00,31.6,31.6,30.18,NE,45,7.0,10.0,100,0.00,,,0.00,VWS V14.01,2013-02-26 10:16:00,
2013-02-26 05:17:00,31.6,31.6,30.18,NE,45,6.0,8.0,100,0.00,,,0.00,VWS V14.01,2013-02-26 10:17:00,
2013-02-26 05:18:00,31.7,31.7,30.18,NE,45,6.0,8.0,100,0.00,,,0.00,VWS V14.01,2013-02-26 10:18:00,
2013-02-26 05:19:00,31.7,31.7,30.18,NE,45,7.0,8.0,100,0.00,,,0.00,VWS V14.01,2013-02-26 10:19:00,
2013-02-26 05:20:00,31.7,31.7,30.18,NE,45,7.0,8.0,100,0.00,,,0.00,VWS V14.01,2013-02-26 10:20:00,
2013-02-26 05:21:00,31.7,31.7,30.18,NE,45,7.0,8.0,100,0.00,,,0.00,VWS V14.01,2013-02-26 10:21:00,
2013-02-26 05:22:00,31.7,31.7,30.18,NE,45,7.0,8.0,100,0.00,,,0.00,VWS V14.01,2013-02-26 10:22:00,
2013-02-26 05:23:00,31.7,31.7,30.18,NE,45,6.0,8.0,100,0.00,,,0.00,VWS V14.01,2013-02-26 10:23:00,
2013-02-26 05:24:00,31.7,31.7,30.18,NE,45,7.0,9.0,100,0.00,,,0.00,VWS V14.01,2013-02-26 10:24:00,
2013-02-26 05:25:00,31.7,31.7,30.18,NE,45,8.0,9.0,100,0.00,,,0.00,VWS V14.01,2013-02-26 10:25:00,
2013-02-26 05:26:00,31.7,31.7,30.18,NE,45,8.0,10.0,100,0.00,,,0.00,VWS V14.01,2013-02-26 10:26:00,
2013-02-26 05:27:00,31.8,31.8,30.18,NE,45,9.0,11.0,100,0.00,,,0.00,VWS V14.01,2013-02-26 10:27:00,
2013-02-26 05:28:00,31.8,31.8,30.18,NE,45,9.0,10.0,100,0.00,,,0.00,VWS V14.01,2013-02-26 10:28:00,
2013-02-26 05:29:00,31.8,31.8,30.18,ENE,68,8.0,10.0,100,0.00,,,0.00,VWS V14.01,2013-02-26 10:29:00,
2013-02-26 05:30:00,31.9,31.9,30.18,ENE,68,9.0,10.0,100,0.00,,,0.00,VWS V14.01,2013-02-26 10:30:00,
2013-02-26 05:31:00,31.9,31.9,30.18,ENE,68,7.0,9.0,100,0.00,,,0.00,VWS V14.01,2013-02-26 10:31:00,
2013-02-26 05:32:00,31.9,31.9,30.18,ENE,68,8.0,10.0,100,0.00,,,0.00,VWS V14.01,2013-02-26 10:32:00,
2013-02-26 05:33:00,32.0,32.0,30.18,ENE,68,8.0,9.0,100,0.00,,,0.00,VWS V14.01,2013-02-26 10:33:00,
2013-02-26 05:34:00,32.0,32.0,30.18,ENE,68,8.0,10.0,100,0.00,,,0.00,VWS V14.01,2013-02-26 10:34:00,
2013-02-26 05:35:00,32.0,32.0,30.18,ENE,68,8.0,10.0,100,0.00,,,0.00,VWS V14.01,2013-02-26 10:35:00,
2013-02-26 05:36:00,32.0,32.0,30.18,ENE,68,8.0,10.0,100,0.00,,,0.00,VWS V14.01,2013-02-26 10:36:00,
2013-02-26 05:37:00,32.1,32.1,30.18,ENE,68,7.0,9.0,100,0.00,,,0.00,VWS V14.01,2013-02-26 10:37:00,
2013-02-26 05:38:00,32.1,32.1,30.18,ENE,68,6.0,8.0,100,0.00,,,0.00,VWS V14.01,2013-02-26 10:38:00,
2013-02-26 05:39:00,32.1,32.1,30.18,ENE,68,8.0,9.0,100,0.00,,,0.00,VWS V14.01,2013-02-26 10:39:00,
2013-02-26 05:40:00,32.1,32.1,30.18,ENE,68,7.0,8.0,100,0.00,,,0.00,VWS V14.01,2013-02-26 10:40:00,
2013-02-26 05:41:00,32.2,32.2,30.18,ENE,68,8.0,9.0,100,0.00,,,0.00,VWS V14.01,2013-02-26 10:41:00,
2013-02-26 05:42:00,32.2,32.2,30.18,ENE,68,8.0,8.0,100,0.00,,,0.00,VWS V14.01,2013-02-26 10:42:00,
2013-02-26 05:43:00,32.3,32.3,30.18,ENE,68,7.0,8.0,100,0.00,,,0.00,VWS V14.01,2013-02-26 10:43:00,
2013-02-26 05:45:00,32.3,32.3,30.18,ENE,68,8.0,9.0,100,0.00,,,0.00,VWS V14.01,2013-02-26 10:45:00,
2013-02-26 05:46:00,32.3,32.3,30.18,ENE,68,8.0,9.0,100,0.00,,,0.00,VWS V14.01,2013-02-26 10:46:00,
2013-02-26 05:47:00,32.4,32.4,30.18,ENE,68,8.0,8.0,100,0.00,,,0.00,VWS V14.01,2013-02-26 10:47:00,
2013-02-26 05:48:00,32.4,32.4,30.18,ENE,68,8.0,9.0,100,0.00,,,0.00,VWS V14.01,2013-02-26 10:48:00,
2013-02-26 05:50:00,32.5,32.5,30.18,ENE,68,6.0,8.0,100,0.00,,,0.00,VWS V14.01,2013-02-26 10:50:00,
2013-02-26 05:51:00,32.5,32.5,30.18,ENE,68,6.0,7.0,100,0.00,,,0.00,VWS V14.01,2013-02-26 10:51:00,
2013-02-26 05:52:00,32.5,32.5,30.18,ENE,68,7.0,7.0,100,0.00,,,0.00,VWS V14.01,2013-02-26 10:52:00,
2013-02-26 05:53:00,32.5,32.5,30.18,ENE,68,6.0,8.0,100,0.00,,,0.00,VWS V14.01,2013-02-26 10:53:00,
2013-02-26 05:55:00,32.5,32.5,30.19,NE,45,6.0,8.0,100,0.00,,,0.00,VWS V14.01,2013-02-26 10:55:00,
2013-02-26 05:56:00,32.5,32.5,30.19,NE,45,6.0,7.0,100,0.00,,,0.00,VWS V14.01,2013-02-26 10:56:00,
2013-02-26 05:57:00,32.5,32.5,30.19,NE,45,6.0,8.0,100,0.00,,,0.00,VWS V14.01,2013-02-26 10:57:00,
2013-02-26 05:58:00,32.5,32.5,30.19,NE,45,5.0,7.0,100,0.00,,,0.00,VWS V14.01,2013-02-26 10:58:00,
2013-02-26 05:59:00,32.5,32.5,30.19,NE,45,6.0,8.0,100,0.00,,,0.00,VWS V14.01,2013-02-26 10:59:00,
2013-02-26 06:00:00,32.5,32.5,30.19,NE,45,6.0,7.0,100,0.00,,,0.00,VWS V14.01,2013-02-26 11:00:00,
2013-02-26 06:01:00,32.5,32.5,30.19,NE,45,5.0,6.0,100,0.00,,,0.00,VWS V14.01,2013-02-26 11:01:00,
2013-02-26 06:02:00,32.5,32.5,30.19,NE,45,5.0,6.0,100,0.00,,,0.00,VWS V14.01,2013-02-26 11:02:00,
2013-02-26 06:03:00,32.5,32.5,30.19,NE,45,5.0,6.0,100,0.00,,,0.00,VWS V14.01,2013-02-26 11:03:00,
2013-02-26 06:04:00,32.5,32.5,30.19,NE,45,4.0,5.0,100,0.00,,,0.00,VWS V14.01,2013-02-26 11:04:00,
2013-02-26 06:05:00,32.5,32.5,30.19,NE,45,5.0,6.0,100,0.00,,,0.00,VWS V14.01,2013-02-26 11:05:00,
2013-02-26 06:06:00,32.5,32.5,30.19,NE,45,5.0,5.0,100,0.00,,,0.00,VWS V14.01,2013-02-26 11:06:00,
2013-02-26 06:07:00,32.5,32.5,30.19,NE,45,5.0,7.0,100,0.00,,,0.00,VWS V14.01,2013-02-26 11:07:00,
2013-02-26 06:08:00,32.5,32.5,30.19,NE,45,5.0,6.0,100,0.00,,,0.00,VWS V14.01,2013-02-26 11:08:00,
2013-02-26 06:09:00,32.5,32.5,30.19,NE,45,5.0,6.0,100,0.00,,,0.00,VWS V14.01,2013-02-26 11:09:00,
2013-02-26 06:10:00,32.5,32.5,30.19,NE,45,5.0,6.0,100,0.00,,,0.00,VWS V14.01,2013-02-26 11:10:00,
2013-02-26 06:11:00,32.5,32.5,30.19,NE,45,5.0,6.0,100,0.00,,,0.00,VWS V14.01,2013-02-26 11:11:00,
2013-02-26 06:12:00,32.5,32.5,30.19,NE,45,5.0,7.0,100,0.00,,,0.00,VWS V14.01,2013-02-26 11:12:00,
2013-02-26 06:13:00,32.4,32.4,30.19,NE,45,5.0,7.0,100,0.00,,,0.00,VWS V14.01,2013-02-26 11:13:00,
2013-02-26 06:14:00,32.4,32.4,30.19,NE,45,5.0,6.0,100,0.00,,,0.00,VWS V14.01,2013-02-26 11:14:00,
2013-02-26 06:15:00,32.5,32.5,30.18,NE,45,5.0,7.0,100,0.00,,,0.00,VWS V14.01,2013-02-26 11:15:00,
2013-02-26 06:16:00,32.5,32.5,30.19,NE,45,5.0,6.0,100,0.00,,,0.00,VWS V14.01,2013-02-26 11:16:00,
2013-02-26 06:17:00,32.5,32.5,30.18,NE,45,5.0,7.0,100,0.00,,,0.00,VWS V14.01,2013-02-26 11:17:00,
2013-02-26 06:18:00,32.5,32.5,30.18,NE,45,5.0,6.0,100,0.00,,,0.00,VWS V14.01,2013-02-26 11:18:00,
2013-02-26 06:19:00,32.4,32.4,30.18,NE,45,5.0,7.0,100,0.00,,,0.00,VWS V14.01,2013-02-26 11:19:00,
2013-02-26 06:20:00,32.5,32.5,30.18,NE,45,6.0,7.0,100,0.00,,,0.00,VWS V14.01,2013-02-26 11:20:00,
2013-02-26 06:21:00,32.5,32.5,30.18,NE,45,5.0,6.0,100,0.00,,,0.00,VWS V14.01,2013-02-26 11:21:00,
2013-02-26 06:22:00,32.5,32.5,30.18,NE,45,5.0,6.0,100,0.00,,,0.00,VWS V14.01,2013-02-26 11:22:00,
2013-02-26 06:23:00,32.5,32.5,30.18,NE,45,6.0,7.0,100,0.00,,,0.00,VWS V14.01,2013-02-26 11:23:00,
2013-02-26 06:24:00,32.5,32.5,30.18,NE,45,6.0,6.0,100,0.00,,,0.00,VWS V14.01,2013-02-26 11:24:00,
2013-02-26 06:25:00,32.5,32.5,30.18,NE,45,5.0,6.0,100,0.00,,,0.00,VWS V14.01,2013-02-26 11:25:00,
2013-02-26 06:26:00,32.6,32.6,30.18,NE,45,5.0,5.0,100,0.00,,,0.00,VWS V14.01,2013-02-26 11:26:00,
2013-02-26 06:27:00,32.6,32.6,30.18,NE,45,5.0,6.0,100,0.00,,,0.00,VWS V14.01,2013-02-26 11:27:00,
2013-02-26 06:28:00,32.6,32.6,30.18,NE,45,5.0,6.0,100,0.00,,,0.00,VWS V14.01,2013-02-26 11:28:00,
2013-02-26 06:29:00,32.6,32.6,30.18,NE,45,5.0,7.0,100,0.00,,,0.00,VWS V14.01,2013-02-26 11:29:00,
2013-02-26 06:30:00,32.6,32.6,30.18,NE,45,5.0,7.0,100,0.00,,,0.00,VWS V14.01,2013-02-26 11:30:00,
2013-02-26 06:31:00,32.7,32.7,30.18,NE,45,5.0,7.0,100,0.00,,,0.00,VWS V14.01,2013-02-26 11:31:00,
2013-02-26 06:32:00,32.7,32.7,30.19,NE,45,5.0,5.0,100,0.00,,,0.00,VWS V14.01,2013-02-26 11:32:00,
2013-02-26 06:33:00,32.7,32.7,30.19,NE,45,5.0,7.0,100,0.00,,,0.00,VWS V14.01,2013-02-26 11:33:00,
2013-02-26 06:34:00,32.7,32.7,30.18,NE,45,4.0,5.0,100,0.00,,,0.00,VWS V14.01,2013-02-26 11:34:00,
2013-02-26 06:35:00,32.7,32.7,30.18,NE,45,5.0,5.0,100,0.00,,,0.00,VWS V14.01,2013-02-26 11:35:00,
2013-02-26 06:36:00,32.7,32.7,30.19,NE,45,5.0,6.0,100,0.00,,,0.00,VWS V14.01,2013-02-26 11:36:00,
2013-02-26 06:37:00,32.8,32.8,30.19,NE,45,5.0,6.0,100,0.00,,,0.00,VWS V14.01,2013-02-26 11:37:00,
2013-02-26 06:38:00,32.8,32.8,30.19,NE,45,5.0,6.0,100,0.00,,,0.00,VWS V14.01,2013-02-26 11:38:00,
2013-02-26 06:39:00,32.8,32.8,30.19,NE,45,5.0,6.0,100,0.00,,,0.00,VWS V14.01,2013-02-26 11:39:00,
2013-02-26 06:40:00,32.8,32.8,30.19,NE,45,5.0,6.0,100,0.00,,,0.00,VWS V14.01,2013-02-26 11:40:00,
2013-02-26 06:41:00,32.8,32.8,30.19,NE,45,5.0,6.0,100,0.00,,,0.00,VWS V14.01,2013-02-26 11:41:00,
2013-02-26 06:43:00,32.9,32.9,30.19,NE,45,5.0,6.0,100,0.00,,,0.00,VWS V14.01,2013-02-26 11:43:00,
2013-02-26 06:45:00,32.9,32.9,30.19,NE,45,5.0,6.0,100,0.00,,,0.00,VWS V14.01,2013-02-26 11:45:00,
2013-02-26 06:46:00,33.0,33.0,30.19,NE,45,6.0,7.0,100,0.00,,,0.00,VWS V14.01,2013-02-26 11:46:00,
2013-02-26 06:47:00,33.0,33.0,30.19,NE,45,5.0,7.0,100,0.00,,,0.00,VWS V14.01,2013-02-26 11:47:00,
2013-02-26 06:48:00,33.0,33.0,30.20,NE,45,4.0,5.0,100,0.00,,,0.00,VWS V14.01,2013-02-26 11:48:00,
2013-02-26 06:49:00,33.0,33.0,30.20,NE,45,5.0,6.0,100,0.00,,,0.00,VWS V14.01,2013-02-26 11:49:00,
2013-02-26 06:50:00,33.0,33.0,30.20,NE,45,4.0,5.0,100,0.00,,,0.00,VWS V14.01,2013-02-26 11:50:00,
2013-02-26 06:51:00,33.1,33.1,30.20,NE,45,4.0,5.0,100,0.00,,,0.00,VWS V14.01,2013-02-26 11:51:00,
2013-02-26 06:52:00,33.1,33.1,30.20,NE,45,4.0,5.0,100,0.00,,,0.00,VWS V14.01,2013-02-26 11:52:00,
2013-02-26 06:53:00,33.1,33.1,30.20,NE,45,5.0,6.0,100,0.00,,,0.00,VWS V14.01,2013-02-26 11:53:00,
2013-02-26 06:54:00,33.1,33.1,30.20,NE,45,5.0,5.0,100,0.00,,,0.00,VWS V14.01,2013-02-26 11:54:00,
2013-02-26 06:55:00,33.2,33.2,30.20,NE,45,4.0,5.0,100,0.00,,,0.00,VWS V14.01,2013-02-26 11:55:00,
2013-02-26 06:56:00,33.2,33.2,30.20,NE,45,5.0,7.0,100,0.00,,,0.00,VWS V14.01,2013-02-26 11:56:00,
2013-02-26 06:57:00,33.2,33.2,30.20,NE,45,4.0,5.0,100,0.00,,,0.00,VWS V14.01,2013-02-26 11:57:00,
2013-02-26 06:58:00,33.2,33.2,30.20,NE,45,4.0,5.0,100,0.00,,,0.00,VWS V14.01,2013-02-26 11:58:00,
2013-02-26 06:59:00,33.3,33.3,30.20,NE,45,4.0,5.0,100,0.00,,,0.00,VWS V14.01,2013-02-26 11:59:00,
2013-02-26 07:00:00,33.3,33.3,30.20,NE,45,4.0,5.0,100,0.00,,,0.00,VWS V14.01,2013-02-26 12:00:00,
2013-02-26 07:01:00,33.3,33.3,30.20,NE,45,4.0,5.0,100,0.00,,,0.00,VWS V14.01,2013-02-26 12:01:00,
2013-02-26 07:02:00,33.4,33.4,30.20,NE,45,4.0,5.0,100,0.00,,,0.00,VWS V14.01,2013-02-26 12:02:00,
2013-02-26 07:03:00,33.4,33.4,30.20,NE,45,5.0,5.0,100,0.00,,,0.00,VWS V14.01,2013-02-26 12:03:00,
2013-02-26 07:04:00,33.4,33.4,30.20,NE,45,5.0,6.0,100,0.00,,,0.00,VWS V14.01,2013-02-26 12:04:00,
2013-02-26 07:05:00,33.5,33.5,30.20,NE,45,4.0,5.0,100,0.00,,,0.00,VWS V14.01,2013-02-26 12:05:00,
2013-02-26 07:06:00,33.5,33.5,30.20,NE,45,4.0,6.0,100,0.00,,,0.00,VWS V14.01,2013-02-26 12:06:00,
2013-02-26 07:07:00,33.5,33.5,30.20,NE,45,4.0,5.0,100,0.00,,,0.00,VWS V14.01,2013-02-26 12:07:00,
2013-02-26 07:08:00,33.5,33.5,30.20,NE,45,5.0,5.0,100,0.00,,,0.00,VWS V14.01,2013-02-26 12:08:00,
2013-02-26 07:09:00,33.6,33.6,30.20,NE,45,5.0,6.0,100,0.00,,,0.00,VWS V14.01,2013-02-26 12:09:00,
2013-02-26 07:10:00,33.6,33.6,30.21,NE,45,5.0,6.0,100,0.00,,,0.00,VWS V14.01,2013-02-26 12:10:00,
2013-02-26 07:11:00,33.7,33.7,30.20,NE,45,5.0,6.0,100,0.00,,,0.00,VWS V14.01,2013-02-26 12:11:00,
2013-02-26 07:12:00,33.7,33.7,30.21,NE,45,5.0,7.0,100,0.00,,,0.00,VWS V14.01,2013-02-26 12:12:00,
2013-02-26 07:13:00,33.8,33.8,30.20,NE,45,4.0,5.0,100,0.00,,,0.00,VWS V14.01,2013-02-26 12:13:00,
2013-02-26 07:14:00,33.8,33.8,30.20,NE,45,4.0,5.0,100,0.00,,,0.00,VWS V14.01,2013-02-26 12:14:00,
2013-02-26 07:15:00,33.8,33.8,30.20,NE,45,5.0,6.0,100,0.00,,,0.00,VWS V14.01,2013-02-26 12:15:00,
2013-02-26 07:16:00,33.9,33.9,30.20,NE,45,5.0,6.0,100,0.00,,,0.00,VWS V14.01,2013-02-26 12:16:00,
2013-02-26 07:17:00,33.9,33.9,30.20,NE,45,5.0,7.0,100,0.00,,,0.00,VWS V14.01,2013-02-26 12:17:00,
2013-02-26 07:18:00,33.9,33.9,30.21,ENE,68,4.0,6.0,100,0.00,,,0.00,VWS V14.01,2013-02-26 12:18:00,
2013-02-26 07:19:00,34.0,34.0,30.20,ENE,68,4.0,5.0,100,0.00,,,0.00,VWS V14.01,2013-02-26 12:19:00,
2013-02-26 07:20:00,34.0,34.0,30.20,ENE,68,5.0,7.0,100,0.00,,,0.00,VWS V14.01,2013-02-26 12:20:00,
2013-02-26 07:21:00,34.1,34.1,30.20,ENE,68,7.0,9.0,100,0.00,,,0.00,VWS V14.01,2013-02-26 12:21:00,
2013-02-26 07:22:00,34.1,34.1,30.20,ENE,68,9.0,10.0,100,0.00,,,0.00,VWS V14.01,2013-02-26 12:22:00,
2013-02-26 07:23:00,34.2,34.2,30.20,ENE,68,9.0,11.0,100,0.00,,,0.00,VWS V14.01,2013-02-26 12:23:00,
2013-02-26 07:24:00,34.3,34.3,30.20,ENE,68,9.0,11.0,100,0.00,,,0.00,VWS V14.01,2013-02-26 12:24:00,
2013-02-26 07:25:00,34.4,34.4,30.20,ENE,68,10.0,11.0,100,0.00,,,0.00,VWS V14.01,2013-02-26 12:25:00,
2013-02-26 07:26:00,34.5,34.5,30.20,ENE,68,9.0,10.0,100,0.00,,,0.00,VWS V14.01,2013-02-26 12:26:00,
2013-02-26 07:27:00,34.6,34.6,30.20,ENE,68,10.0,12.0,100,0.00,,,0.00,VWS V14.01,2013-02-26 12:27:00,
2013-02-26 07:28:00,34.7,34.7,30.20,ENE,68,9.0,10.0,100,0.00,,,0.00,VWS V14.01,2013-02-26 12:28:00,
2013-02-26 07:29:00,34.8,34.8,30.20,ENE,68,10.0,12.0,100,0.00,,,0.00,VWS V14.01,2013-02-26 12:29:00,
2013-02-26 07:30:00,34.9,34.9,30.20,ENE,68,11.0,13.0,100,0.00,,,0.00,VWS V14.01,2013-02-26 12:30:00,
2013-02-26 07:31:00,35.0,35.0,30.20,ENE,68,11.0,13.0,100,0.00,,,0.00,VWS V14.01,2013-02-26 12:31:00,
2013-02-26 07:32:00,35.1,35.1,30.20,ENE,68,9.0,11.0,100,0.00,,,0.00,VWS V14.01,2013-02-26 12:32:00,
2013-02-26 07:33:00,35.2,35.2,30.20,ENE,68,10.0,12.0,100,0.00,,,0.00,VWS V14.01,2013-02-26 12:33:00,
2013-02-26 07:34:00,35.3,35.3,30.20,ENE,68,10.0,12.0,100,0.00,,,0.00,VWS V14.01,2013-02-26 12:34:00,
2013-02-26 07:35:00,35.3,35.3,30.20,ENE,68,10.0,12.0,100,0.00,,,0.00,VWS V14.01,2013-02-26 12:35:00,
2013-02-26 07:36:00,35.4,35.4,30.20,ENE,68,10.0,11.0,100,0.00,,,0.00,VWS V14.01,2013-02-26 12:36:00,
2013-02-26 07:37:00,35.5,35.5,30.20,ENE,68,10.0,12.0,100,0.00,,,0.00,VWS V14.01,2013-02-26 12:37:00,
2013-02-26 07:38:00,35.6,35.6,30.20,ENE,68,9.0,11.0,100,0.00,,,0.00,VWS V14.01,2013-02-26 12:38:00,
2013-02-26 07:39:00,35.7,35.7,30.20,ENE,68,10.0,11.0,100,0.00,,,0.00,VWS V14.01,2013-02-26 12:39:00,
2013-02-26 07:40:00,35.7,35.7,30.20,ENE,68,9.0,10.0,100,0.00,,,0.00,VWS V14.01,2013-02-26 12:40:00,
2013-02-26 07:41:00,35.8,35.8,30.20,ENE,68,11.0,12.0,100,0.00,,,0.00,VWS V14.01,2013-02-26 12:41:00,
2013-02-26 07:42:00,35.9,35.9,30.20,ENE,68,10.0,11.0,100,0.00,,,0.00,VWS V14.01,2013-02-26 12:42:00,
2013-02-26 07:43:00,35.9,35.9,30.20,ENE,68,10.0,12.0,100,0.00,,,0.00,VWS V14.01,2013-02-26 12:43:00,
2013-02-26 07:44:00,36.0,36.0,30.20,ENE,68,11.0,12.0,100,0.00,,,0.00,VWS V14.01,2013-02-26 12:44:00,
2013-02-26 07:45:00,36.0,36.0,30.19,ENE,68,9.0,10.0,100,0.00,,,0.00,VWS V14.01,2013-02-26 12:45:00,
2013-02-26 07:46:00,36.1,36.1,30.19,ENE,68,10.0,12.0,100,0.00,,,0.00,VWS V14.01,2013-02-26 12:46:00,
2013-02-26 07:47:00,36.2,36.2,30.19,ENE,68,10.0,12.0,100,0.00,,,0.00,VWS V14.01,2013-02-26 12:47:00,
2013-02-26 07:48:00,36.2,36.2,30.19,ENE,68,11.0,14.0,100,0.00,,,0.00,VWS V14.01,2013-02-26 12:48:00,
2013-02-26 07:49:00,36.3,36.3,30.19,East,90,11.0,14.0,100,0.00,,,0.00,VWS V14.01,2013-02-26 12:49:00,
2013-02-26 07:50:00,36.4,36.4,30.19,ENE,68,12.0,14.0,100,0.00,,,0.00,VWS V14.01,2013-02-26 12:50:00,
2013-02-26 07:51:00,36.4,36.4,30.19,ENE,68,10.0,12.0,100,0.00,,,0.00,VWS V14.01,2013-02-26 12:51:00,
2013-02-26 07:52:00,36.5,36.5,30.19,ENE,68,11.0,12.0,100,0.00,,,0.00,VWS V14.01,2013-02-26 12:52:00,
2013-02-26 07:53:00,36.5,36.5,30.19,East,90,10.0,11.0,100,0.00,,,0.00,VWS V14.01,2013-02-26 12:53:00,
2013-02-26 07:54:00,36.6,36.6,30.19,East,90,9.0,11.0,100,0.00,,,0.00,VWS V14.01,2013-02-26 12:54:00,
2013-02-26 07:55:00,36.6,36.6,30.19,ENE,68,11.0,12.0,100,0.00,,,0.00,VWS V14.01,2013-02-26 12:55:00,
2013-02-26 07:56:00,36.7,36.7,30.19,ENE,68,10.0,13.0,100,0.00,,,0.00,VWS V14.01,2013-02-26 12:56:00,
2013-02-26 07:57:00,36.7,36.7,30.19,East,90,9.0,11.0,100,0.00,,,0.00,VWS V14.01,2013-02-26 12:57:00,
2013-02-26 07:58:00,36.8,36.8,30.19,ENE,68,11.0,13.0,100,0.00,,,0.00,VWS V14.01,2013-02-26 12:58:00,
2013-02-26 07:59:00,36.8,36.8,30.19,East,90,11.0,13.0,100,0.00,,,0.00,VWS V14.01,2013-02-26 12:59:00,
2013-02-26 08:00:00,36.9,36.9,30.19,East,90,10.0,11.0,100,0.00,,,0.00,VWS V14.01,2013-02-26 13:00:00,
2013-02-26 08:01:00,36.9,36.9,30.19,ENE,68,10.0,13.0,100,0.00,,,0.00,VWS V14.01,2013-02-26 13:01:00,
2013-02-26 08:02:00,37.0,37.0,30.19,East,90,11.0,14.0,100,0.00,,,0.00,VWS V14.01,2013-02-26 13:02:00,
2013-02-26 08:03:00,37.0,37.0,30.19,East,90,12.0,14.0,100,0.00,,,0.00,VWS V14.01,2013-02-26 13:03:00,
2013-02-26 08:04:00,37.0,37.0,30.19,East,90,11.0,13.0,100,0.00,,,0.00,VWS V14.01,2013-02-26 13:04:00,
2013-02-26 08:05:00,37.1,37.1,30.19,ENE,68,10.0,14.0,100,0.00,,,0.00,VWS V14.01,2013-02-26 13:05:00,
2013-02-26 08:06:00,37.1,37.1,30.19,East,90,12.0,15.0,100,0.00,,,0.00,VWS V14.01,2013-02-26 13:06:00,
2013-02-26 08:07:00,37.1,37.1,30.19,East,90,11.0,15.0,100,0.00,,,0.00,VWS V14.01,2013-02-26 13:07:00,
2013-02-26 08:08:00,37.1,37.1,30.19,East,90,10.0,13.0,100,0.00,,,0.00,VWS V14.01,2013-02-26 13:08:00,
2013-02-26 08:09:00,37.2,37.2,30.19,ENE,68,11.0,13.0,100,0.00,,,0.00,VWS V14.01,2013-02-26 13:09:00,
2013-02-26 08:10:00,37.2,37.2,30.19,East,90,11.0,13.0,100,0.00,,,0.00,VWS V14.01,2013-02-26 13:10:00,
2013-02-26 08:11:00,37.3,37.3,30.19,East,90,13.0,15.0,100,0.00,,,0.00,VWS V14.01,2013-02-26 13:11:00,
2013-02-26 08:12:00,37.3,37.3,30.19,East,90,12.0,14.0,100,0.00,,,0.00,VWS V14.01,2013-02-26 13:12:00,
2013-02-26 08:13:00,37.3,37.3,30.20,East,90,10.0,13.0,100,0.00,,,0.00,VWS V14.01,2013-02-26 13:13:00,
2013-02-26 08:14:00,37.4,37.4,30.19,East,90,10.0,13.0,100,0.00,,,0.00,VWS V14.01,2013-02-26 13:14:00,
2013-02-26 08:15:00,37.4,37.4,30.19,East,90,12.0,14.0,100,0.00,,,0.00,VWS V14.01,2013-02-26 13:15:00,
2013-02-26 08:16:00,37.4,37.4,30.19,East,90,12.0,14.0,100,0.00,,,0.00,VWS V14.01,2013-02-26 13:16:00,
2013-02-26 08:17:00,37.5,37.5,30.19,East,90,12.0,14.0,100,0.00,,,0.00,VWS V14.01,2013-02-26 13:17:00,
2013-02-26 08:18:00,37.5,37.5,30.19,ENE,68,13.0,15.0,100,0.00,,,0.00,VWS V14.01,2013-02-26 13:18:00,
2013-02-26 08:19:00,37.5,37.5,30.20,East,90,12.0,14.0,100,0.00,,,0.00,VWS V14.01,2013-02-26 13:19:00,
2013-02-26 08:20:00,37.6,37.6,30.20,East,90,12.0,14.0,100,0.00,,,0.00,VWS V14.01,2013-02-26 13:20:00,
2013-02-26 08:21:00,37.6,37.6,30.20,East,90,13.0,14.0,100,0.00,,,0.00,VWS V14.01,2013-02-26 13:21:00,
2013-02-26 08:22:00,37.7,37.7,30.20,ENE,68,13.0,14.0,100,0.00,,,0.00,VWS V14.01,2013-02-26 13:22:00,
2013-02-26 08:23:00,37.7,37.7,30.20,ENE,68,13.0,15.0,100,0.00,,,0.00,VWS V14.01,2013-02-26 13:23:00,
2013-02-26 08:24:00,37.7,37.7,30.20,ENE,68,12.0,15.0,100,0.00,,,0.00,VWS V14.01,2013-02-26 13:24:00,
2013-02-26 08:25:00,37.8,37.8,30.20,ENE,68,13.0,15.0,100,0.00,,,0.00,VWS V14.01,2013-02-26 13:25:00,
2013-02-26 08:26:00,37.8,37.8,30.20,East,90,12.0,14.0,100,0.00,,,0.00,VWS V14.01,2013-02-26 13:26:00,
2013-02-26 08:27:00,37.9,37.9,30.20,ENE,68,12.0,14.0,100,0.00,,,0.00,VWS V14.01,2013-02-26 13:27:00,
2013-02-26 08:28:00,37.9,37.9,30.20,ENE,68,12.0,15.0,100,0.00,,,0.00,VWS V14.01,2013-02-26 13:28:00,
2013-02-26 08:29:00,37.9,37.9,30.20,East,90,14.0,17.0,100,0.00,,,0.00,VWS V14.01,2013-02-26 13:29:00,
2013-02-26 08:30:00,37.9,37.9,30.20,ENE,68,13.0,16.0,100,0.00,,,0.00,VWS V14.01,2013-02-26 13:30:00,
2013-02-26 08:31:00,37.9,37.9,30.20,ENE,68,12.0,14.0,100,0.00,,,0.00,VWS V14.01,2013-02-26 13:31:00,
2013-02-26 08:32:00,38.0,38.0,30.20,ENE,68,11.0,14.0,100,0.00,,,0.00,VWS V14.01,2013-02-26 13:32:00,
2013-02-26 08:33:00,38.0,38.0,30.20,ENE,68,10.0,13.0,100,0.00,,,0.00,VWS V14.01,2013-02-26 13:33:00,
2013-02-26 08:34:00,38.1,38.1,30.20,ENE,68,11.0,12.0,100,0.00,,,0.00,VWS V14.01,2013-02-26 13:34:00,
2013-02-26 08:35:00,38.1,38.1,30.20,ENE,68,11.0,13.0,100,0.00,,,0.00,VWS V14.01,2013-02-26 13:35:00,
2013-02-26 08:36:00,38.1,38.1,30.20,ENE,68,11.0,12.0,100,0.00,,,0.00,VWS V14.01,2013-02-26 13:36:00,
2013-02-26 08:37:00,38.2,38.2,30.20,ENE,68,10.0,12.0,100,0.00,,,0.00,VWS V14.01,2013-02-26 13:37:00,
2013-02-26 08:38:00,38.2,38.2,30.20,ENE,68,12.0,14.0,100,0.00,,,0.00,VWS V14.01,2013-02-26 13:38:00,
2013-02-26 08:39:00,38.2,38.2,30.20,ENE,68,12.0,14.0,100,0.00,,,0.00,VWS V14.01,2013-02-26 13:39:00,
2013-02-26 08:40:00,38.2,38.2,30.20,ENE,68,12.0,14.0,100,0.00,,,0.00,VWS V14.01,2013-02-26 13:40:00,
2013-02-26 08:41:00,38.3,38.3,30.20,ENE,68,13.0,16.0,100,0.00,,,0.00,VWS V14.01,2013-02-26 13:41:00,
2013-02-26 08:42:00,38.3,38.3,30.20,ENE,68,12.0,14.0,100,0.00,,,0.00,VWS V14.01,2013-02-26 13:42:00,
2013-02-26 08:43:00,38.3,38.3,30.20,ENE,68,12.0,14.0,100,0.00,,,0.00,VWS V14.01,2013-02-26 13:43:00,
2013-02-26 08:44:00,38.3,38.3,30.20,East,90,11.0,13.0,100,0.00,,,0.00,VWS V14.01,2013-02-26 13:44:00,
2013-02-26 08:45:00,38.4,38.4,30.20,East,90,12.0,15.0,100,0.00,,,0.00,VWS V14.01,2013-02-26 13:45:00,
2013-02-26 08:46:00,38.4,38.4,30.20,East,90,12.0,14.0,100,0.00,,,0.00,VWS V14.01,2013-02-26 13:46:00,
2013-02-26 08:47:00,38.4,38.4,30.20,ENE,68,12.0,14.0,100,0.00,,,0.00,VWS V14.01,2013-02-26 13:47:00,
2013-02-26 08:48:00,38.4,38.4,30.20,ENE,68,12.0,13.0,100,0.00,,,0.00,VWS V14.01,2013-02-26 13:48:00,
2013-02-26 08:49:00,38.5,38.5,30.20,ENE,68,12.0,15.0,100,0.00,,,0.00,VWS V14.01,2013-02-26 13:49:00,
2013-02-26 08:50:00,38.5,38.5,30.20,ENE,68,12.0,15.0,100,0.00,,,0.00,VWS V14.01,2013-02-26 13:50:00,
2013-02-26 08:51:00,38.6,38.6,30.20,ENE,68,13.0,15.0,100,0.00,,,0.00,VWS V14.01,2013-02-26 13:51:00,
2013-02-26 08:52:00,38.6,38.6,30.20,ENE,68,13.0,15.0,100,0.00,,,0.00,VWS V14.01,2013-02-26 13:52:00,
2013-02-26 08:53:00,38.6,38.6,30.20,ENE,68,12.0,13.0,100,0.00,,,0.00,VWS V14.01,2013-02-26 13:53:00,
2013-02-26 08:54:00,38.7,38.7,30.20,ENE,68,12.0,14.0,100,0.00,,,0.00,VWS V14.01,2013-02-26 13:54:00,
2013-02-26 08:55:00,38.7,38.7,30.20,ENE,68,12.0,14.0,100,0.00,,,0.00,VWS V14.01,2013-02-26 13:55:00,
2013-02-26 08:56:00,38.7,38.7,30.20,ENE,68,12.0,15.0,100,0.00,,,0.00,VWS V14.01,2013-02-26 13:56:00,
2013-02-26 08:57:00,38.7,38.7,30.20,ENE,68,14.0,17.0,100,0.00,,,0.00,VWS V14.01,2013-02-26 13:57:00,
2013-02-26 08:58:00,38.8,38.8,30.20,ENE,68,14.0,16.0,100,0.00,,,0.00,VWS V14.01,2013-02-26 13:58:00,
2013-02-26 08:59:00,38.8,38.8,30.20,ENE,68,13.0,15.0,100,0.00,,,0.00,VWS V14.01,2013-02-26 13:59:00,
2013-02-26 09:00:00,38.8,38.8,30.20,ENE,68,13.0,15.0,100,0.00,,,0.00,VWS V14.01,2013-02-26 14:00:00,
2013-02-26 09:01:00,38.9,38.9,30.20,East,90,13.0,16.0,100,0.00,,,0.00,VWS V14.01,2013-02-26 14:01:00,
2013-02-26 09:02:00,38.9,38.9,30.20,ENE,68,13.0,15.0,100,0.00,,,0.00,VWS V14.01,2013-02-26 14:02:00,
2013-02-26 09:03:00,38.9,38.9,30.20,East,90,11.0,14.0,100,0.00,,,0.00,VWS V14.01,2013-02-26 14:03:00,
2013-02-26 09:04:00,39.0,39.0,30.20,East,90,13.0,17.0,100,0.00,,,0.00,VWS V14.01,2013-02-26 14:04:00,
2013-02-26 09:05:00,39.0,39.0,30.20,ENE,68,15.0,17.0,100,0.00,,,0.00,VWS V14.01,2013-02-26 14:05:00,
2013-02-26 09:06:00,39.1,39.1,30.20,ENE,68,13.0,14.0,100,0.00,,,0.00,VWS V14.01,2013-02-26 14:06:00,
2013-02-26 09:07:00,39.1,39.1,30.20,ENE,68,14.0,16.0,100,0.00,,,0.00,VWS V14.01,2013-02-26 14:07:00,
2013-02-26 09:08:00,39.1,39.1,30.20,ENE,68,14.0,16.0,100,0.00,,,0.00,VWS V14.01,2013-02-26 14:08:00,
2013-02-26 09:09:00,39.2,39.2,30.20,ENE,68,14.0,16.0,100,0.00,,,0.00,VWS V14.01,2013-02-26 14:09:00,
2013-02-26 09:10:00,39.2,39.2,30.20,ENE,68,13.0,15.0,100,0.00,,,0.00,VWS V14.01,2013-02-26 14:10:00,
2013-02-26 09:11:00,39.2,39.2,30.20,ENE,68,14.0,17.0,100,0.00,,,0.00,VWS V14.01,2013-02-26 14:11:00,
2013-02-26 09:12:00,39.3,39.3,30.20,ENE,68,15.0,16.0,100,0.00,,,0.00,VWS V14.01,2013-02-26 14:12:00,
2013-02-26 09:13:00,39.3,39.3,30.20,ENE,68,13.0,15.0,100,0.00,,,0.00,VWS V14.01,2013-02-26 14:13:00,
2013-02-26 09:14:00,39.3,39.3,30.20,ENE,68,14.0,16.0,100,0.00,,,0.00,VWS V14.01,2013-02-26 14:14:00,
2013-02-26 09:15:00,39.4,39.4,30.20,ENE,68,13.0,17.0,100,0.00,,,0.00,VWS V14.01,2013-02-26 14:15:00,
2013-02-26 09:16:00,39.4,39.4,30.20,ENE,68,13.0,15.0,100,0.00,,,0.00,VWS V14.01,2013-02-26 14:16:00,
2013-02-26 09:17:00,39.5,39.5,30.20,ENE,68,12.0,15.0,100,0.00,,,0.00,VWS V14.01,2013-02-26 14:17:00,
2013-02-26 09:18:00,39.5,39.5,30.20,ENE,68,11.0,14.0,100,0.00,,,0.00,VWS V14.01,2013-02-26 14:18:00,
2013-02-26 09:19:00,39.5,39.5,30.20,ENE,68,12.0,14.0,100,0.00,,,0.00,VWS V14.01,2013-02-26 14:19:00,
2013-02-26 09:20:00,39.6,39.6,30.20,ENE,68,13.0,14.0,100,0.00,,,0.00,VWS V14.01,2013-02-26 14:20:00,
2013-02-26 09:21:00,39.6,39.6,30.20,ENE,68,12.0,14.0,100,0.00,,,0.00,VWS V14.01,2013-02-26 14:21:00,
2013-02-26 09:22:00,39.6,39.6,30.20,ENE,68,13.0,16.0,100,0.00,,,0.00,VWS V14.01,2013-02-26 14:22:00,
2013-02-26 09:23:00,39.7,39.7,30.20,East,90,11.0,15.0,100,0.00,,,0.00,VWS V14.01,2013-02-26 14:23:00,
2013-02-26 09:24:00,39.7,39.7,30.20,ENE,68,14.0,17.0,100,0.00,,,0.00,VWS V14.01,2013-02-26 14:24:00,
2013-02-26 09:25:00,39.8,39.8,30.20,ENE,68,12.0,14.0,100,0.00,,,0.00,VWS V14.01,2013-02-26 14:25:00,
2013-02-26 09:26:00,39.8,39.8,30.20,ENE,68,12.0,16.0,100,0.00,,,0.00,VWS V14.01,2013-02-26 14:26:00,
2013-02-26 09:27:00,39.8,39.8,30.20,ENE,68,13.0,16.0,100,0.00,,,0.00,VWS V14.01,2013-02-26 14:27:00,
2013-02-26 09:28:00,39.9,39.9,30.19,East,90,12.0,15.0,100,0.00,,,0.00,VWS V14.01,2013-02-26 14:28:00,
2013-02-26 09:29:00,39.9,39.9,30.20,East,90,14.0,16.0,100,0.00,,,0.00,VWS V14.01,2013-02-26 14:29:00,
2013-02-26 09:30:00,40.0,40.0,30.20,East,90,14.0,16.0,100,0.00,,,0.00,VWS V14.01,2013-02-26 14:30:00,
2013-02-26 09:31:00,40.0,40.0,30.20,ENE,68,13.0,16.0,100,0.00,,,0.00,VWS V14.01,2013-02-26 14:31:00,
2013-02-26 09:32:00,40.0,40.0,30.19,ENE,68,14.0,16.0,100,0.00,,,0.00,VWS V14.01,2013-02-26 14:32:00,
2013-02-26 09:33:00,40.1,40.1,30.19,ENE,68,14.0,15.0,100,0.00,,,0.00,VWS V14.01,2013-02-26 14:33:00,
2013-02-26 09:34:00,40.1,40.1,30.19,ENE,68,14.0,16.0,100,0.00,,,0.00,VWS V14.01,2013-02-26 14:34:00,
2013-02-26 09:35:00,40.2,40.2,30.19,ENE,68,13.0,15.0,100,0.00,,,0.00,VWS V14.01,2013-02-26 14:35:00,
2013-02-26 09:36:00,40.2,40.2,30.19,ENE,68,13.0,15.0,100,0.00,,,0.00,VWS V14.01,2013-02-26 14:36:00,
2013-02-26 09:37:00,40.3,40.3,30.19,ENE,68,14.0,16.0,100,0.00,,,0.00,VWS V14.01,2013-02-26 14:37:00,
2013-02-26 09:38:00,40.3,40.3,30.19,ENE,68,14.0,15.0,100,0.00,,,0.00,VWS V14.01,2013-02-26 14:38:00,
2013-02-26 09:39:00,40.4,40.4,30.18,ENE,68,14.0,16.0,100,0.00,,,0.00,VWS V14.01,2013-02-26 14:39:00,
2013-02-26 09:40:00,40.4,40.4,30.19,ENE,68,14.0,16.0,100,0.00,,,0.00,VWS V14.01,2013-02-26 14:40:00,
2013-02-26 09:41:00,40.4,40.4,30.19,ENE,68,12.0,14.0,100,0.00,,,0.00,VWS V14.01,2013-02-26 14:41:00,
2013-02-26 09:42:00,40.5,40.5,30.18,ENE,68,13.0,15.0,100,0.00,,,0.00,VWS V14.01,2013-02-26 14:42:00,
2013-02-26 09:43:00,40.5,40.5,30.18,ENE,68,13.0,15.0,100,0.00,,,0.00,VWS V14.01,2013-02-26 14:43:00,
2013-02-26 09:44:00,40.6,40.6,30.18,ENE,68,13.0,15.0,100,0.00,,,0.00,VWS V14.01,2013-02-26 14:44:00,
2013-02-26 09:45:00,40.6,40.6,30.18,ENE,68,13.0,17.0,100,0.00,,,0.00,VWS V14.01,2013-02-26 14:45:00,
2013-02-26 09:46:00,40.6,40.6,30.18,ENE,68,14.0,17.0,100,0.00,,,0.00,VWS V14.01,2013-02-26 14:46:00,
2013-02-26 09:47:00,40.7,40.7,30.18,ENE,68,14.0,17.0,100,0.00,,,0.00,VWS V14.01,2013-02-26 14:47:00,
2013-02-26 09:48:00,40.7,40.7,30.18,ENE,68,13.0,15.0,100,0.00,,,0.00,VWS V14.01,2013-02-26 14:48:00,
2013-02-26 09:49:00,40.8,40.8,30.18,ENE,68,13.0,16.0,100,0.00,,,0.00,VWS V14.01,2013-02-26 14:49:00,
2013-02-26 09:50:00,40.8,40.8,30.18,ENE,68,13.0,18.0,100,0.00,,,0.00,VWS V14.01,2013-02-26 14:50:00,
2013-02-26 09:51:00,40.9,40.9,30.18,ENE,68,15.0,18.0,100,0.00,,,0.00,VWS V14.01,2013-02-26 14:51:00,
2013-02-26 09:52:00,40.9,40.9,30.18,East,90,15.0,18.0,100,0.00,,,0.00,VWS V14.01,2013-02-26 14:52:00,
2013-02-26 09:53:00,41.0,41.0,30.18,ENE,68,14.0,16.0,100,0.00,,,0.00,VWS V14.01,2013-02-26 14:53:00,
2013-02-26 09:54:00,41.0,41.0,30.18,ENE,68,14.0,17.0,100,0.00,,,0.00,VWS V14.01,2013-02-26 14:54:00,
2013-02-26 09:55:00,41.1,41.1,30.18,ENE,68,14.0,17.0,100,0.00,,,0.00,VWS V14.01,2013-02-26 14:55:00,
2013-02-26 09:56:00,41.1,41.1,30.18,East,90,14.0,17.0,100,0.00,,,0.00,VWS V14.01,2013-02-26 14:56:00,
2013-02-26 09:57:00,41.1,41.1,30.18,ENE,68,15.0,18.0,100,0.00,,,0.00,VWS V14.01,2013-02-26 14:57:00,
2013-02-26 09:58:00,41.2,41.2,30.19,ENE,68,14.0,17.0,100,0.00,,,0.00,VWS V14.01,2013-02-26 14:58:00,
2013-02-26 09:59:00,41.2,41.2,30.19,ENE,68,15.0,17.0,100,0.00,,,0.00,VWS V14.01,2013-02-26 14:59:00,
2013-02-26 10:00:00,41.3,41.3,30.19,East,90,15.0,17.0,100,0.00,,,0.00,VWS V14.01,2013-02-26 15:00:00,
2013-02-26 10:01:00,41.3,41.3,30.19,ENE,68,14.0,17.0,100,0.00,,,0.00,VWS V14.01,2013-02-26 15:01:00,
2013-02-26 10:02:00,41.3,41.3,30.19,ENE,68,13.0,16.0,100,0.00,,,0.00,VWS V14.01,2013-02-26 15:02:00,
2013-02-26 10:03:00,41.4,41.4,30.19,ENE,68,15.0,18.0,100,0.00,,,0.00,VWS V14.01,2013-02-26 15:03:00,
2013-02-26 10:04:00,41.4,41.4,30.19,East,90,15.0,16.0,100,0.00,,,0.00,VWS V14.01,2013-02-26 15:04:00,
2013-02-26 10:05:00,41.5,41.5,30.19,ENE,68,14.0,16.0,100,0.00,,,0.00,VWS V14.01,2013-02-26 15:05:00,
2013-02-26 10:06:00,41.5,41.5,30.19,East,90,13.0,16.0,100,0.00,,,0.00,VWS V14.01,2013-02-26 15:06:00,
2013-02-26 10:07:00,41.5,41.5,30.19,ENE,68,14.0,18.0,100,0.00,,,0.00,VWS V14.01,2013-02-26 15:07:00,
2013-02-26 10:08:00,41.6,41.6,30.19,East,90,13.0,17.0,100,0.00,,,0.00,VWS V14.01,2013-02-26 15:08:00,
2013-02-26 10:09:00,41.6,41.6,30.19,ENE,68,13.0,15.0,100,0.00,,,0.00,VWS V14.01,2013-02-26 15:09:00,
2013-02-26 10:10:00,41.6,41.6,30.19,ENE,68,15.0,17.0,100,0.00,,,0.00,VWS V14.01,2013-02-26 15:10:00,
2013-02-26 10:11:00,41.7,41.7,30.19,ENE,68,15.0,17.0,100,0.00,,,0.00,VWS V14.01,2013-02-26 15:11:00,
2013-02-26 10:12:00,41.7,41.7,30.19,East,90,15.0,17.0,100,0.00,,,0.00,VWS V14.01,2013-02-26 15:12:00,
2013-02-26 10:13:00,41.8,41.8,30.19,ENE,68,14.0,17.0,100,0.00,,,0.00,VWS V14.01,2013-02-26 15:13:00,
2013-02-26 10:14:00,41.8,41.8,30.19,East,90,14.0,17.0,100,0.00,,,0.00,VWS V14.01,2013-02-26 15:14:00,
2013-02-26 10:15:00,41.9,41.9,30.19,East,90,14.0,17.0,100,0.00,,,0.00,VWS V14.01,2013-02-26 15:15:00,
2013-02-26 10:16:00,41.9,41.9,30.19,East,90,15.0,16.0,100,0.00,,,0.00,VWS V14.01,2013-02-26 15:16:00,
2013-02-26 10:17:00,41.9,41.9,30.19,ENE,68,13.0,15.0,100,0.00,,,0.00,VWS V14.01,2013-02-26 15:17:00,
2013-02-26 10:18:00,41.9,41.9,30.19,ENE,68,14.0,16.0,100,0.00,,,0.00,VWS V14.01,2013-02-26 15:18:00,
2013-02-26 10:19:00,42.0,42.0,30.19,ENE,68,14.0,16.0,100,0.00,,,0.00,VWS V14.01,2013-02-26 15:19:00,
2013-02-26 10:20:00,42.0,42.0,30.19,ENE,68,15.0,17.0,100,0.00,,,0.00,VWS V14.01,2013-02-26 15:20:00,
2013-02-26 10:21:00,42.0,42.0,30.19,ENE,68,12.0,15.0,100,0.00,,,0.00,VWS V14.01,2013-02-26 15:21:00,
2013-02-26 10:22:00,42.0,42.0,30.19,ENE,68,11.0,14.0,100,0.00,,,0.00,VWS V14.01,2013-02-26 15:22:00,
2013-02-26 10:23:00,42.0,42.0,30.19,East,90,13.0,16.0,100,0.00,,,0.00,VWS V14.01,2013-02-26 15:23:00,
2013-02-26 10:24:00,42.1,42.1,30.19,ENE,68,14.0,16.0,100,0.00,,,0.00,VWS V14.01,2013-02-26 15:24:00,
2013-02-26 10:25:00,42.1,42.1,30.19,ENE,68,14.0,16.0,100,0.00,,,0.00,VWS V14.01,2013-02-26 15:25:00,
2013-02-26 10:26:00,42.1,42.1,30.19,ENE,68,15.0,17.0,100,0.00,,,0.00,VWS V14.01,2013-02-26 15:26:00,
2013-02-26 10:27:00,42.2,42.2,30.19,East,90,14.0,16.0,100,0.00,,,0.00,VWS V14.01,2013-02-26 15:27:00,
2013-02-26 10:28:00,42.2,42.2,30.19,ENE,68,12.0,15.0,100,0.00,,,0.00,VWS V14.01,2013-02-26 15:28:00,
2013-02-26 10:29:00,42.2,42.2,30.19,East,90,14.0,16.0,100,0.00,,,0.00,VWS V14.01,2013-02-26 15:29:00,
2013-02-26 10:30:00,42.2,42.2,30.19,East,90,11.0,14.0,100,0.00,,,0.00,VWS V14.01,2013-02-26 15:30:00,
2013-02-26 10:31:00,42.2,42.2,30.19,East,90,12.0,15.0,100,0.00,,,0.00,VWS V14.01,2013-02-26 15:31:00,
2013-02-26 10:32:00,42.3,42.3,30.19,East,90,15.0,18.0,100,0.00,,,0.00,VWS V14.01,2013-02-26 15:32:00,
2013-02-26 10:33:00,42.3,42.3,30.19,East,90,15.0,18.0,100,0.00,,,0.00,VWS V14.01,2013-02-26 15:33:00,
2013-02-26 10:34:00,42.3,42.3,30.19,East,90,15.0,17.0,100,0.00,,,0.00,VWS V14.01,2013-02-26 15:34:00,
2013-02-26 10:35:00,42.4,42.4,30.19,East,90,14.0,16.0,100,0.00,,,0.00,VWS V14.01,2013-02-26 15:35:00,
2013-02-26 10:36:00,42.4,42.4,30.19,East,90,16.0,18.0,100,0.00,,,0.00,VWS V14.01,2013-02-26 15:36:00,
2013-02-26 10:37:00,42.5,42.5,30.19,East,90,14.0,18.0,100,0.00,,,0.00,VWS V14.01,2013-02-26 15:37:00,
2013-02-26 10:38:00,42.5,42.5,30.19,East,90,14.0,16.0,100,0.00,,,0.00,VWS V14.01,2013-02-26 15:38:00,
2013-02-26 10:39:00,42.6,42.6,30.19,East,90,14.0,17.0,100,0.00,,,0.00,VWS V14.01,2013-02-26 15:39:00,
2013-02-26 10:40:00,42.7,42.7,30.19,East,90,13.0,16.0,100,0.00,,,0.00,VWS V14.01,2013-02-26 15:40:00,
2013-02-26 10:41:00,42.8,42.8,30.19,East,90,13.0,15.0,100,0.00,,,0.00,VWS V14.01,2013-02-26 15:41:00,
2013-02-26 10:42:00,42.9,42.9,30.19,East,90,15.0,18.0,100,0.00,,,0.00,VWS V14.01,2013-02-26 15:42:00,
2013-02-26 10:43:00,42.9,42.9,30.19,East,90,15.0,19.0,100,0.00,,,0.00,VWS V14.01,2013-02-26 15:43:00,
2013-02-26 10:44:00,43.0,43.0,30.19,East,90,14.0,16.0,100,0.00,,,0.00,VWS V14.01,2013-02-26 15:44:00,
2013-02-26 10:45:00,43.1,43.1,30.19,East,90,15.0,20.0,100,0.00,,,0.00,VWS V14.01,2013-02-26 15:45:00,
2013-02-26 10:46:00,43.1,43.1,30.19,East,90,15.0,19.0,100,0.00,,,0.00,VWS V14.01,2013-02-26 15:46:00,
2013-02-26 10:47:00,43.2,43.2,30.19,East,90,15.0,17.0,100,0.00,,,0.00,VWS V14.01,2013-02-26 15:47:00,
2013-02-26 10:48:00,43.3,43.3,30.18,East,90,16.0,21.0,100,0.00,,,0.00,VWS V14.01,2013-02-26 15:48:00,
2013-02-26 10:49:00,43.3,43.3,30.18,East,90,15.0,21.0,100,0.00,,,0.00,VWS V14.01,2013-02-26 15:49:00,
2013-02-26 10:50:00,43.4,43.4,30.18,East,90,16.0,19.0,100,0.00,,,0.00,VWS V14.01,2013-02-26 15:50:00,
2013-02-26 10:51:00,43.4,43.4,30.18,East,90,15.0,18.0,100,0.00,,,0.00,VWS V14.01,2013-02-26 15:51:00,
2013-02-26 10:52:00,43.4,43.4,30.18,East,90,15.0,18.0,100,0.00,,,0.00,VWS V14.01,2013-02-26 15:52:00,
2013-02-26 10:53:00,43.5,43.5,30.18,East,90,17.0,21.0,100,0.00,,,0.00,VWS V14.01,2013-02-26 15:53:00,
2013-02-26 10:54:00,43.6,43.6,30.18,East,90,15.0,19.0,100,0.00,,,0.00,VWS V14.01,2013-02-26 15:54:00,
2013-02-26 10:55:00,43.6,43.6,30.18,East,90,17.0,19.0,100,0.00,,,0.00,VWS V14.01,2013-02-26 15:55:00,
2013-02-26 10:56:00,43.6,43.6,30.18,East,90,17.0,19.0,100,0.00,,,0.00,VWS V14.01,2013-02-26 15:56:00,
2013-02-26 10:57:00,43.6,43.6,30.18,East,90,14.0,18.0,100,0.00,,,0.00,VWS V14.01,2013-02-26 15:57:00,
2013-02-26 10:58:00,43.7,43.7,30.18,East,90,14.0,17.0,100,0.00,,,0.00,VWS V14.01,2013-02-26 15:58:00,
2013-02-26 10:59:00,43.7,43.7,30.18,East,90,18.0,20.0,100,0.00,,,0.00,VWS V14.01,2013-02-26 15:59:00,
2013-02-26 11:00:00,43.8,43.8,30.18,East,90,16.0,20.0,100,0.00,,,0.00,VWS V14.01,2013-02-26 16:00:00,
2013-02-26 11:01:00,43.8,43.8,30.18,East,90,19.0,22.0,100,0.00,,,0.00,VWS V14.01,2013-02-26 16:01:00,
2013-02-26 11:02:00,43.8,43.8,30.18,East,90,19.0,22.0,100,0.00,,,0.00,VWS V14.01,2013-02-26 16:02:00,
2013-02-26 11:03:00,43.8,43.8,30.17,East,90,18.0,22.0,100,0.00,,,0.00,VWS V14.01,2013-02-26 16:03:00,
2013-02-26 11:04:00,43.8,43.8,30.17,East,90,19.0,23.0,100,0.00,,,0.00,VWS V14.01,2013-02-26 16:04:00,
2013-02-26 11:05:00,43.8,43.8,30.17,East,90,18.0,22.0,100,0.00,,,0.00,VWS V14.01,2013-02-26 16:05:00,
2013-02-26 11:06:00,43.9,43.9,30.17,East,90,16.0,23.0,100,0.00,,,0.00,VWS V14.01,2013-02-26 16:06:00,
2013-02-26 11:07:00,43.9,43.9,30.17,East,90,16.0,17.0,100,0.00,,,0.00,VWS V14.01,2013-02-26 16:07:00,
2013-02-26 11:08:00,44.0,44.0,30.17,East,90,19.0,21.0,100,0.00,,,0.00,VWS V14.01,2013-02-26 16:08:00,
2013-02-26 11:09:00,44.0,44.0,30.17,East,90,19.0,23.0,100,0.00,,,0.00,VWS V14.01,2013-02-26 16:09:00,
2013-02-26 11:10:00,44.0,44.0,30.17,East,90,17.0,21.0,100,0.00,,,0.00,VWS V14.01,2013-02-26 16:10:00,
2013-02-26 11:11:00,44.1,44.1,30.17,East,90,17.0,21.0,100,0.00,,,0.00,VWS V14.01,2013-02-26 16:11:00,
2013-02-26 11:12:00,44.1,44.1,30.16,East,90,15.0,22.0,100,0.00,,,0.00,VWS V14.01,2013-02-26 16:12:00,
2013-02-26 11:13:00,44.2,44.2,30.16,East,90,17.0,21.0,100,0.00,,,0.00,VWS V14.01,2013-02-26 16:13:00,
2013-02-26 11:14:00,44.3,44.3,30.16,East,90,18.0,20.0,100,0.00,,,0.00,VWS V14.01,2013-02-26 16:14:00,
2013-02-26 11:15:00,44.3,44.3,30.16,East,90,17.0,21.0,100,0.00,,,0.00,VWS V14.01,2013-02-26 16:15:00,
2013-02-26 11:16:00,44.4,44.4,30.16,East,90,17.0,22.0,100,0.00,,,0.00,VWS V14.01,2013-02-26 16:16:00,
2013-02-26 11:17:00,44.5,44.5,30.16,East,90,17.0,22.0,100,0.00,,,0.00,VWS V14.01,2013-02-26 16:17:00,
2013-02-26 11:18:00,44.5,44.5,30.16,East,90,19.0,22.0,100,0.00,,,0.00,VWS V14.01,2013-02-26 16:18:00,
2013-02-26 11:19:00,44.6,44.6,30.16,East,90,14.0,17.0,100,0.00,,,0.00,VWS V14.01,2013-02-26 16:19:00,
2013-02-26 11:20:00,44.7,44.7,30.16,East,90,17.0,21.0,100,0.00,,,0.00,VWS V14.01,2013-02-26 16:20:00,
2013-02-26 11:21:00,44.7,44.7,30.16,East,90,18.0,20.0,100,0.00,,,0.00,VWS V14.01,2013-02-26 16:21:00,
2013-02-26 11:22:00,44.8,44.8,30.16,East,90,16.0,21.0,100,0.00,,,0.00,VWS V14.01,2013-02-26 16:22:00,
2013-02-26 11:23:00,44.9,44.9,30.16,East,90,17.0,20.0,100,0.00,,,0.00,VWS V14.01,2013-02-26 16:23:00,
2013-02-26 11:24:00,45.0,45.0,30.16,East,90,15.0,18.0,100,0.00,,,0.00,VWS V14.01,2013-02-26 16:24:00,
2013-02-26 11:25:00,45.1,45.1,30.16,East,90,17.0,23.0,100,0.00,,,0.00,VWS V14.01,2013-02-26 16:25:00,
2013-02-26 11:26:00,45.2,45.2,30.16,East,90,17.0,22.0,100,0.00,,,0.00,VWS V14.01,2013-02-26 16:26:00,
2013-02-26 11:27:00,45.2,45.2,30.16,East,90,16.0,19.0,100,0.00,,,0.00,VWS V14.01,2013-02-26 16:27:00,
2013-02-26 11:28:00,45.2,45.2,30.16,East,90,17.0,19.0,100,0.00,,,0.00,VWS V14.01,2013-02-26 16:28:00,
2013-02-26 11:29:00,45.3,45.3,30.16,East,90,19.0,24.0,100,0.00,,,0.00,VWS V14.01,2013-02-26 16:29:00,
2013-02-26 11:30:00,45.3,45.3,30.16,East,90,20.0,23.0,100,0.00,,,0.00,VWS V14.01,2013-02-26 16:30:00,
2013-02-26 11:31:00,45.3,45.3,30.16,East,90,19.0,23.0,100,0.00,,,0.00,VWS V14.01,2013-02-26 16:31:00,
2013-02-26 11:32:00,45.2,45.2,30.16,East,90,21.0,25.0,100,0.00,,,0.00,VWS V14.01,2013-02-26 16:32:00,
2013-02-26 11:33:00,45.2,45.2,30.16,East,90,15.0,25.0,100,0.00,,,0.00,VWS V14.01,2013-02-26 16:33:00,
2013-02-26 11:34:00,45.2,45.2,30.16,East,90,17.0,22.0,100,0.00,,,0.00,VWS V14.01,2013-02-26 16:34:00,
2013-02-26 11:35:00,45.2,45.2,30.16,East,90,16.0,20.0,100,0.00,,,0.00,VWS V14.01,2013-02-26 16:35:00,
2013-02-26 11:36:00,45.2,45.2,30.16,East,90,19.0,23.0,100,0.00,,,0.00,VWS V14.01,2013-02-26 16:36:00,
2013-02-26 11:37:00,45.2,45.2,30.16,East,90,17.0,19.0,100,0.00,,,0.00,VWS V14.01,2013-02-26 16:37:00,
2013-02-26 11:38:00,45.1,45.1,30.16,East,90,17.0,21.0,100,0.00,,,0.00,VWS V14.01,2013-02-26 16:38:00,
2013-02-26 11:39:00,45.2,45.2,30.16,East,90,17.0,19.0,100,0.00,,,0.00,VWS V14.01,2013-02-26 16:39:00,
2013-02-26 11:40:00,45.1,45.1,30.16,East,90,19.0,25.0,100,0.00,,,0.00,VWS V14.01,2013-02-26 16:40:00,
2013-02-26 11:41:00,45.2,45.2,30.16,East,90,18.0,22.0,100,0.00,,,0.00,VWS V14.01,2013-02-26 16:41:00,
2013-02-26 11:42:00,45.2,45.2,30.16,East,90,18.0,21.0,100,0.00,,,0.00,VWS V14.01,2013-02-26 16:42:00,
2013-02-26 11:43:00,45.2,45.2,30.16,East,90,15.0,20.0,100,0.00,,,0.00,VWS V14.01,2013-02-26 16:43:00,
2013-02-26 11:44:00,45.2,45.2,30.16,East,90,18.0,21.0,100,0.00,,,0.00,VWS V14.01,2013-02-26 16:44:00,
2013-02-26 11:45:00,45.2,45.2,30.16,East,90,17.0,23.0,100,0.00,,,0.00,VWS V14.01,2013-02-26 16:45:00,
2013-02-26 11:46:00,45.2,45.2,30.16,East,90,16.0,20.0,100,0.00,,,0.00,VWS V14.01,2013-02-26 16:46:00,
2013-02-26 11:47:00,45.3,45.3,30.16,East,90,16.0,19.0,100,0.00,,,0.00,VWS V14.01,2013-02-26 16:47:00,
2013-02-26 11:48:00,45.3,45.3,30.16,East,90,16.0,19.0,100,0.00,,,0.00,VWS V14.01,2013-02-26 16:48:00,
2013-02-26 11:49:00,45.3,45.3,30.16,East,90,16.0,22.0,100,0.00,,,0.00,VWS V14.01,2013-02-26 16:49:00,
2013-02-26 11:50:00,45.4,45.4,30.16,East,90,16.0,19.0,100,0.00,,,0.00,VWS V14.01,2013-02-26 16:50:00,
2013-02-26 11:51:00,45.4,45.4,30.16,East,90,16.0,18.0,100,0.00,,,0.00,VWS V14.01,2013-02-26 16:51:00,
2013-02-26 11:52:00,45.4,45.4,30.16,East,90,16.0,19.0,100,0.00,,,0.00,VWS V14.01,2013-02-26 16:52:00,
2013-02-26 11:53:00,45.4,45.4,30.16,East,90,17.0,24.0,100,0.00,,,0.00,VWS V14.01,2013-02-26 16:53:00,
2013-02-26 11:54:00,45.3,45.3,30.16,East,90,17.0,20.0,100,0.00,,,0.00,VWS V14.01,2013-02-26 16:54:00,
2013-02-26 11:55:00,45.3,45.3,30.16,East,90,18.0,22.0,100,0.00,,,0.00,VWS V14.01,2013-02-26 16:55:00,
2013-02-26 11:56:00,45.2,45.2,30.16,East,90,15.0,19.0,100,0.00,,,0.00,VWS V14.01,2013-02-26 16:56:00,
2013-02-26 11:57:00,45.2,45.2,30.16,East,90,17.0,23.0,100,0.00,,,0.00,VWS V14.01,2013-02-26 16:57:00,
2013-02-26 11:58:00,45.2,45.2,30.16,East,90,17.0,24.0,100,0.00,,,0.00,VWS V14.01,2013-02-26 16:58:00,
2013-02-26 11:59:00,45.1,45.1,30.16,East,90,15.0,18.0,100,0.00,,,0.00,VWS V14.01,2013-02-26 16:59:00,
2013-02-26 12:00:00,45.1,45.1,30.16,East,90,17.0,23.0,100,0.00,,,0.00,VWS V14.01,2013-02-26 17:00:00,
2013-02-26 12:01:00,45.1,45.1,30.16,East,90,14.0,16.0,100,0.00,,,0.00,VWS V14.01,2013-02-26 17:01:00,
2013-02-26 12:02:00,45.1,45.1,30.15,East,90,16.0,19.0,100,0.00,,,0.00,VWS V14.01,2013-02-26 17:02:00,
2013-02-26 12:03:00,45.1,45.1,30.15,East,90,15.0,18.0,100,0.00,,,0.00,VWS V14.01,2013-02-26 17:03:00,
2013-02-26 12:04:00,45.1,45.1,30.15,East,90,15.0,19.0,100,0.00,,,0.00,VWS V14.01,2013-02-26 17:04:00,
2013-02-26 12:05:00,45.1,45.1,30.16,East,90,16.0,23.0,100,0.00,,,0.00,VWS V14.01,2013-02-26 17:05:00,
2013-02-26 12:06:00,45.1,45.1,30.15,East,90,19.0,23.0,100,0.00,,,0.00,VWS V14.01,2013-02-26 17:06:00,
2013-02-26 12:07:00,45.0,45.0,30.15,East,90,19.0,23.0,100,0.00,,,0.00,VWS V14.01,2013-02-26 17:07:00,
2013-02-26 12:08:00,44.9,44.9,30.15,East,90,17.0,21.0,100,0.00,,,0.00,VWS V14.01,2013-02-26 17:08:00,
2013-02-26 12:09:00,44.9,44.9,30.15,East,90,17.0,20.0,100,0.00,,,0.00,VWS V14.01,2013-02-26 17:09:00,
2013-02-26 12:10:00,44.8,44.8,30.15,East,90,17.0,22.0,100,0.00,,,0.00,VWS V14.01,2013-02-26 17:10:00,
2013-02-26 12:11:00,44.8,44.8,30.15,East,90,17.0,21.0,100,0.00,,,0.00,VWS V14.01,2013-02-26 17:11:00,
2013-02-26 12:12:00,44.7,44.7,30.15,East,90,17.0,20.0,100,0.00,,,0.00,VWS V14.01,2013-02-26 17:12:00,
2013-02-26 12:13:00,44.6,44.6,30.15,East,90,16.0,19.0,100,0.00,,,0.00,VWS V14.01,2013-02-26 17:13:00,
2013-02-26 12:14:00,44.6,44.6,30.15,East,90,17.0,20.0,100,0.00,,,0.00,VWS V14.01,2013-02-26 17:14:00,
2013-02-26 12:15:00,44.6,44.6,30.15,East,90,16.0,20.0,100,0.00,,,0.00,VWS V14.01,2013-02-26 17:15:00,
2013-02-26 12:16:00,44.5,44.5,30.15,East,90,17.0,20.0,100,0.00,,,0.00,VWS V14.01,2013-02-26 17:16:00,
2013-02-26 12:17:00,44.5,44.5,30.15,East,90,15.0,20.0,100,0.00,,,0.00,VWS V14.01,2013-02-26 17:17:00,
2013-02-26 12:18:00,44.5,44.5,30.14,East,90,16.0,19.0,100,0.00,,,0.00,VWS V14.01,2013-02-26 17:18:00,
2013-02-26 12:19:00,44.4,44.4,30.15,East,90,18.0,21.0,100,0.00,,,0.00,VWS V14.01,2013-02-26 17:19:00,
2013-02-26 12:20:00,44.4,44.4,30.14,East,90,18.0,23.0,100,0.00,,,0.00,VWS V14.01,2013-02-26 17:20:00,
2013-02-26 12:21:00,44.3,44.3,30.14,East,90,17.0,20.0,100,0.00,,,0.00,VWS V14.01,2013-02-26 17:21:00,
2013-02-26 12:22:00,44.2,44.2,30.14,East,90,19.0,24.0,100,0.00,,,0.00,VWS V14.01,2013-02-26 17:22:00,
2013-02-26 12:23:00,44.2,44.2,30.14,East,90,18.0,22.0,100,0.00,,,0.00,VWS V14.01,2013-02-26 17:23:00,
2013-02-26 12:24:00,44.2,44.2,30.14,East,90,19.0,24.0,100,0.00,,,0.00,VWS V14.01,2013-02-26 17:24:00,
2013-02-26 12:25:00,44.1,44.1,30.14,East,90,18.0,23.0,100,0.00,,,0.00,VWS V14.01,2013-02-26 17:25:00,
2013-02-26 12:26:00,44.1,44.1,30.14,East,90,18.0,24.0,100,0.00,,,0.00,VWS V14.01,2013-02-26 17:26:00,
2013-02-26 12:27:00,44.1,44.1,30.14,East,90,19.0,25.0,100,0.00,,,0.00,VWS V14.01,2013-02-26 17:27:00,
2013-02-26 12:28:00,44.0,44.0,30.14,ENE,68,18.0,23.0,100,0.00,,,0.00,VWS V14.01,2013-02-26 17:28:00,
2013-02-26 12:29:00,44.0,44.0,30.14,East,90,20.0,24.0,100,0.00,,,0.00,VWS V14.01,2013-02-26 17:29:00,
2013-02-26 12:30:00,44.0,44.0,30.13,East,90,20.0,24.0,100,0.00,,,0.00,VWS V14.01,2013-02-26 17:30:00,
2013-02-26 12:31:00,44.0,44.0,30.13,East,90,19.0,22.0,100,0.00,,,0.00,VWS V14.01,2013-02-26 17:31:00,
2013-02-26 12:32:00,44.0,44.0,30.13,East,90,18.0,23.0,100,0.00,,,0.00,VWS V14.01,2013-02-26 17:32:00,
2013-02-26 12:33:00,44.0,44.0,30.13,East,90,18.0,22.0,100,0.00,,,0.00,VWS V14.01,2013-02-26 17:33:00,
2013-02-26 12:34:00,44.1,44.1,30.13,East,90,16.0,23.0,100,0.00,,,0.00,VWS V14.01,2013-02-26 17:34:00,
2013-02-26 12:35:00,44.1,44.1,30.13,East,90,18.0,21.0,100,0.00,,,0.00,VWS V14.01,2013-02-26 17:35:00,
2013-02-26 12:36:00,44.1,44.1,30.13,East,90,17.0,22.0,100,0.00,,,0.00,VWS V14.01,2013-02-26 17:36:00,
2013-02-26 12:37:00,44.1,44.1,30.13,East,90,18.0,22.0,100,0.00,,,0.00,VWS V14.01,2013-02-26 17:37:00,
2013-02-26 12:38:00,44.1,44.1,30.13,East,90,18.0,24.0,100,0.00,,,0.00,VWS V14.01,2013-02-26 17:38:00,
2013-02-26 12:39:00,44.2,44.2,30.13,East,90,16.0,19.0,100,0.00,,,0.00,VWS V14.01,2013-02-26 17:39:00,
2013-02-26 12:40:00,44.2,44.2,30.13,East,90,17.0,23.0,100,0.00,,,0.00,VWS V14.01,2013-02-26 17:40:00,
2013-02-26 12:41:00,44.2,44.2,30.12,East,90,18.0,22.0,100,0.00,,,0.00,VWS V14.01,2013-02-26 17:41:00,
2013-02-26 12:42:00,44.2,44.2,30.12,East,90,18.0,21.0,100,0.00,,,0.00,VWS V14.01,2013-02-26 17:42:00,
2013-02-26 12:43:00,44.2,44.2,30.12,East,90,17.0,21.0,100,0.00,,,0.00,VWS V14.01,2013-02-26 17:43:00,
2013-02-26 12:44:00,44.2,44.2,30.12,East,90,20.0,23.0,100,0.00,,,0.00,VWS V14.01,2013-02-26 17:44:00,
2013-02-26 12:45:00,44.2,44.2,30.12,East,90,17.0,22.0,100,0.00,,,0.00,VWS V14.01,2013-02-26 17:45:00,
2013-02-26 12:46:00,44.2,44.2,30.12,East,90,20.0,25.0,100,0.00,,,0.00,VWS V14.01,2013-02-26 17:46:00,
2013-02-26 12:47:00,44.2,44.2,30.11,East,90,20.0,24.0,100,0.00,,,0.00,VWS V14.01,2013-02-26 17:47:00,
2013-02-26 12:48:00,44.2,44.2,30.11,East,90,21.0,26.0,100,0.00,,,0.00,VWS V14.01,2013-02-26 17:48:00,
2013-02-26 12:49:00,44.2,44.2,30.11,East,90,21.0,25.0,100,0.00,,,0.00,VWS V14.01,2013-02-26 17:49:00,
2013-02-26 12:50:00,44.2,44.2,30.12,East,90,20.0,26.0,100,0.00,,,0.00,VWS V14.01,2013-02-26 17:50:00,
2013-02-26 12:51:00,44.2,44.2,30.11,East,90,18.0,22.0,100,0.00,,,0.00,VWS V14.01,2013-02-26 17:51:00,
2013-02-26 12:52:00,44.2,44.2,30.11,East,90,19.0,22.0,100,0.00,,,0.00,VWS V14.01,2013-02-26 17:52:00,
2013-02-26 12:53:00,44.2,44.2,30.11,East,90,18.0,22.0,100,0.00,,,0.00,VWS V14.01,2013-02-26 17:53:00,
2013-02-26 12:54:00,44.2,44.2,30.11,East,90,18.0,24.0,100,0.00,,,0.00,VWS V14.01,2013-02-26 17:54:00,
2013-02-26 12:55:00,44.2,44.2,30.11,East,90,17.0,22.0,100,0.00,,,0.00,VWS V14.01,2013-02-26 17:55:00,
2013-02-26 12:56:00,44.2,44.2,30.11,East,90,17.0,21.0,100,0.00,,,0.00,VWS V14.01,2013-02-26 17:56:00,
2013-02-26 12:57:00,44.2,44.2,30.11,East,90,18.0,24.0,100,0.00,,,0.00,VWS V14.01,2013-02-26 17:57:00,
2013-02-26 13:07:00,44.1,44.1,30.11,East,90,19.0,22.0,100,0.00,,,0.00,VWS V14.01,2013-02-26 18:07:00,
2013-02-26 13:14:00,44.0,44.0,30.11,East,90,18.0,23.0,100,0.00,,,0.00,VWS V14.01,2013-02-26 18:14:00,
2013-02-26 13:19:00,43.8,43.8,30.11,East,86,19.0,23.0,100,0.00,,,0.00,VWS V14.01,2013-02-26 18:19:00,
2013-02-26 13:24:00,43.8,43.8,30.10,East,87,16.0,18.0,100,0.00,,,0.00,VWS V14.01,2013-02-26 18:24:00,
2013-02-26 13:29:00,43.7,43.7,30.10,East,81,23.0,23.0,100,0.00,,,0.00,VWS V14.01,2013-02-26 18:29:00,
2013-02-26 13:34:00,43.7,43.7,30.10,East,81,18.0,18.0,100,0.00,,SCT036,0.00,VWS V14.01,2013-02-26 18:34:00,
2013-02-26 13:39:00,43.7,43.7,30.10,East,80,20.0,20.0,100,0.00,,SCT036,0.00,VWS V14.01,2013-02-26 18:39:00,
2013-02-26 13:44:00,43.7,43.7,30.10,East,79,17.0,18.0,100,0.00,,SCT036,0.00,VWS V14.01,2013-02-26 18:44:00,
2013-02-26 13:49:00,43.6,43.6,30.09,East,80,18.0,18.0,100,0.00,,SCT036,0.00,VWS V14.01,2013-02-26 18:49:00,
2013-02-26 13:54:00,43.6,43.6,30.09,East,82,17.0,19.0,100,0.00,,OVC034,0.00,VWS V14.01,2013-02-26 18:54:00,
2013-02-26 13:59:00,43.4,43.4,30.08,ENE,76,22.0,23.0,100,0.00,,OVC034,0.00,VWS V14.01,2013-02-26 18:59:00,
2013-02-26 14:04:00,43.4,43.4,30.08,East,88,21.0,21.0,100,0.00,,OVC034,0.00,VWS V14.01,2013-02-26 19:04:00,
2013-02-26 14:09:00,43.3,43.3,30.07,East,79,18.0,19.0,100,0.00,,OVC034,0.00,VWS V14.01,2013-02-26 19:09:00,
2013-02-26 14:14:00,43.2,43.2,30.07,ESE,111,17.0,21.0,100,0.00,,OVC034,0.00,VWS V14.01,2013-02-26 19:14:00,
2013-02-26 14:19:00,43.2,43.2,30.07,East,80,13.0,17.0,100,0.00,,OVC034,0.00,VWS V14.01,2013-02-26 19:19:00,
2013-02-26 14:24:00,43.2,43.2,30.07,East,91,22.0,22.0,100,0.00,,OVC034,0.00,VWS V14.01,2013-02-26 19:24:00,
2013-02-26 14:29:00,43.3,43.3,30.07,ENE,66,22.0,28.0,100,0.00,,OVC034,0.00,VWS V14.01,2013-02-26 19:29:00,
2013-02-26 14:34:00,43.3,43.3,30.07,East,86,17.0,19.0,100,0.00,,OVC034,0.00,VWS V14.01,2013-02-26 19:34:00,
2013-02-26 14:39:00,43.4,43.4,30.07,East,88,11.0,22.0,100,0.00,,OVC034,0.00,VWS V14.01,2013-02-26 19:39:00,
2013-02-26 14:44:00,43.5,43.5,30.07,East,85,18.0,23.0,100,0.00,,OVC032,0.00,VWS V14.01,2013-02-26 19:44:00,
2013-02-26 14:49:00,43.4,43.4,30.06,East,79,19.0,21.0,100,0.00,,OVC032,0.00,VWS V14.01,2013-02-26 19:49:00,
2013-02-26 14:54:00,43.2,43.2,30.06,East,85,19.0,23.0,100,0.00,,OVC032,0.00,VWS V14.01,2013-02-26 19:54:00,
2013-02-26 14:59:00,43.1,43.1,30.06,East,92,22.0,23.0,100,0.00,,OVC032,0.00,VWS V14.01,2013-02-26 19:59:00,
2013-02-26 15:04:00,43.1,43.1,30.06,East,80,11.0,18.0,100,0.00,,OVC032,0.00,VWS V14.01,2013-02-26 20:04:00,
2013-02-26 15:09:00,43.0,43.0,30.05,ENE,78,20.0,22.0,100,0.00,,OVC032,0.00,VWS V14.01,2013-02-26 20:09:00,
2013-02-26 15:14:00,42.9,42.9,30.05,East,87,16.0,24.0,100,0.00,,OVC032,0.00,VWS V14.01,2013-02-26 20:14:00,
2013-02-26 15:19:00,42.8,42.8,30.05,East,84,15.0,23.0,100,0.00,,OVC032,0.00,VWS V14.01,2013-02-26 20:19:00,
2013-02-26 15:24:00,42.9,42.9,30.05,East,90,19.0,24.0,100,0.00,,OVC032,0.00,VWS V14.01,2013-02-26 20:24:00,
2013-02-26 15:29:00,42.9,42.9,30.05,East,84,23.0,23.0,100,0.00,,OVC032,0.00,VWS V14.01,2013-02-26 20:29:00,
2013-02-26 15:34:00,42.9,42.9,30.04,East,95,21.0,21.0,100,0.00,,OVC032,0.00,VWS V14.01,2013-02-26 20:34:00,
2013-02-26 15:39:00,42.9,42.9,30.04,ENE,67,14.0,19.0,100,0.00,,OVC032,0.00,VWS V14.01,2013-02-26 20:39:00,
2013-02-26 15:44:00,42.9,42.9,30.04,ENE,71,16.0,22.0,100,0.00,,OVC032,0.00,VWS V14.01,2013-02-26 20:44:00,
2013-02-26 15:49:00,42.9,42.9,30.04,East,92,14.0,17.0,100,0.00,,OVC032,0.00,VWS V14.01,2013-02-26 20:49:00,
2013-02-26 15:54:00,42.9,42.9,30.04,East,79,17.0,19.0,100,0.00,,OVC030,0.00,VWS V14.01,2013-02-26 20:54:00,
2013-02-26 15:59:00,42.9,42.9,30.03,ENE,78,13.0,20.0,100,0.00,,OVC030,0.00,VWS V14.01,2013-02-26 20:59:00,
2013-02-26 16:04:00,42.9,42.9,30.03,East,86,21.0,21.0,100,0.00,,OVC030,0.00,VWS V14.01,2013-02-26 21:04:00,
2013-02-26 16:09:00,42.9,42.9,30.03,East,89,21.0,21.0,100,0.00,,OVC030,0.00,VWS V14.01,2013-02-26 21:09:00,
2013-02-26 16:14:00,42.8,42.8,30.02,East,86,21.0,22.0,100,0.00,,OVC030,0.00,VWS V14.01,2013-02-26 21:14:00,
2013-02-26 16:19:00,42.8,42.8,30.01,East,82,20.0,24.0,100,0.00,,OVC030,0.00,VWS V14.01,2013-02-26 21:19:00,
2013-02-26 16:24:00,42.8,42.8,30.01,East,91,14.0,21.0,100,0.00,,OVC030,0.00,VWS V14.01,2013-02-26 21:24:00,
2013-02-26 16:29:00,42.8,42.8,30.01,East,90,17.0,20.0,100,0.00,,OVC030,0.00,VWS V14.01,2013-02-26 21:29:00,
2013-02-26 16:34:00,42.8,42.8,30.01,East,87,15.0,15.0,100,0.00,,OVC030,0.00,VWS V14.01,2013-02-26 21:34:00,
2013-02-26 16:39:00,42.8,42.8,30.00,East,99,18.0,21.0,100,0.00,,OVC030,0.00,VWS V14.01,2013-02-26 21:39:00,
2013-02-26 16:44:00,42.8,42.8,30.00,East,97,18.0,21.0,100,0.00,,OVC030,0.00,VWS V14.01,2013-02-26 21:44:00,
2013-02-26 16:49:00,42.8,42.8,29.99,East,86,18.0,18.0,100,0.00,,OVC030,0.00,VWS V14.01,2013-02-26 21:49:00,
2013-02-26 16:54:00,42.9,42.9,29.98,East,86,17.0,19.0,100,0.00,,OVC028,0.00,VWS V14.01,2013-02-26 21:54:00,
2013-02-26 16:59:00,42.9,42.9,29.98,East,99,19.0,21.0,100,0.00,,OVC028,0.00,VWS V14.01,2013-02-26 21:59:00,
2013-02-26 17:04:00,42.8,42.8,29.99,East,91,11.0,18.0,100,0.00,,OVC028,0.00,VWS V14.01,2013-02-26 22:04:00,
2013-02-26 17:09:00,42.7,42.7,29.98,ESE,107,13.0,17.0,100,0.00,,OVC028,0.00,VWS V14.01,2013-02-26 22:09:00,
2013-02-26 17:14:00,42.6,42.6,29.98,East,98,16.0,16.0,100,0.00,,OVC028,0.00,VWS V14.01,2013-02-26 22:14:00,
2013-02-26 17:19:00,42.5,42.5,29.98,East,91,18.0,18.0,100,0.00,,OVC028,0.00,VWS V14.01,2013-02-26 22:19:00,
2013-02-26 17:24:00,42.5,42.5,29.97,East,96,18.0,19.0,100,0.01,,OVC028,0.01,VWS V14.01,2013-02-26 22:24:00,
2013-02-26 17:29:00,42.5,42.5,29.96,East,88,17.0,21.0,100,0.01,,OVC028,0.01,VWS V14.01,2013-02-26 22:29:00,
2013-02-26 17:34:00,42.5,42.5,29.95,ENE,74,16.0,25.0,100,0.01,,OVC030,0.01,VWS V14.01,2013-02-26 22:34:00,
2013-02-26 17:39:00,42.6,42.6,29.94,East,81,16.0,19.0,100,0.02,,OVC030,0.02,VWS V14.01,2013-02-26 22:39:00,
2013-02-26 17:44:00,42.7,42.7,29.94,East,97,17.0,23.0,100,0.02,,OVC030,0.02,VWS V14.01,2013-02-26 22:44:00,
2013-02-26 17:48:00,42.8,42.8,29.95,ENE,69,22.0,25.0,100,0.02,,OVC030,0.02,VWS V14.01,2013-02-26 22:48:00,
2013-02-26 17:53:00,42.8,42.8,29.95,East,94,23.0,25.0,100,0.02,,OVC024,0.02,VWS V14.01,2013-02-26 22:53:00,
2013-02-26 17:58:00,42.8,42.8,29.94,ESE,113,16.0,19.0,100,0.03,,OVC024,0.03,VWS V14.01,2013-02-26 22:58:00,
2013-02-26 18:03:00,42.7,42.7,29.93,East,84,17.0,18.0,100,0.03,,OVC024,0.03,VWS V14.01,2013-02-26 23:03:00,
2013-02-26 18:08:00,42.7,42.7,29.92,East,96,17.0,25.0,100,0.04,,OVC024,0.04,VWS V14.01,2013-02-26 23:08:00,
2013-02-26 18:13:00,42.7,42.7,29.92,East,86,19.0,23.0,100,0.04,,OVC020,0.04,VWS V14.01,2013-02-26 23:13:00,
2013-02-26 18:18:00,42.7,42.7,29.92,East,94,18.0,24.0,100,0.04,,OVC020,0.04,VWS V14.01,2013-02-26 23:18:00,
2013-02-26 18:24:00,42.7,42.7,29.91,East,99,20.0,22.0,100,0.04,,OVC020,0.05,VWS V14.01,2013-02-26 23:24:00,
2013-02-26 18:28:00,42.6,42.6,29.91,East,91,18.0,20.0,100,0.05,,OVC020,0.06,VWS V14.01,2013-02-26 23:28:00,
2013-02-26 18:33:00,42.5,42.5,29.90,ESE,119,26.0,26.0,100,0.05,,OVC018,0.06,VWS V14.01,2013-02-26 23:33:00,
2013-02-26 18:38:00,42.5,42.5,29.91,East,90,23.0,23.0,100,0.04,,OVC018,0.06,VWS V14.01,2013-02-26 23:38:00,
2013-02-26 18:43:00,42.5,42.5,29.90,East,95,21.0,25.0,100,0.04,,OVC018,0.06,VWS V14.01,2013-02-26 23:43:00,
2013-02-26 18:48:00,42.5,42.5,29.90,East,94,17.0,19.0,100,0.04,,OVC018,0.06,VWS V14.01,2013-02-26 23:48:00,
2013-02-26 18:53:00,42.6,42.6,29.89,East,84,26.0,26.0,100,0.04,,OVC018,0.06,VWS V14.01,2013-02-26 23:53:00,
2013-02-26 18:58:00,42.6,42.6,29.89,East,86,23.0,26.0,100,0.03,,OVC018,0.06,VWS V14.01,2013-02-26 23:58:00,
2013-02-26 19:03:00,42.7,42.7,29.88,ESE,118,23.0,23.0,100,0.03,,OVC018,0.06,VWS V14.01,2013-02-27 00:03:00,
2013-02-26 19:08:00,42.7,42.7,29.87,East,90,24.0,25.0,100,0.02,,OVC018,0.06,VWS V14.01,2013-02-27 00:08:00,
2013-02-26 19:13:00,42.8,42.8,29.86,East,95,26.0,26.0,100,0.02,,OVC018,0.06,VWS V14.01,2013-02-27 00:13:00,
2013-02-26 19:18:00,42.8,42.8,29.85,East,92,18.0,29.0,100,0.02,,OVC018,0.06,VWS V14.01,2013-02-27 00:18:00,
2013-02-26 19:23:00,42.9,42.9,29.84,East,99,23.0,30.0,100,0.01,,OVC015,0.06,VWS V14.01,2013-02-27 00:23:00,
2013-02-26 19:28:00,42.9,42.9,29.85,East,89,26.0,26.0,100,0.00,,OVC015,0.06,VWS V14.01,2013-02-27 00:28:00,
2013-02-26 19:33:00,42.9,42.9,29.83,ESE,103,24.0,27.0,100,0.00,,OVC015,0.06,VWS V14.01,2013-02-27 00:33:00,
2013-02-26 19:38:00,43.0,43.0,29.83,East,92,16.0,28.0,100,0.00,,OVC015,0.06,VWS V14.01,2013-02-27 00:38:00,
2013-02-26 19:43:00,43.1,43.1,29.82,East,86,25.0,25.0,100,0.01,,OVC015,0.07,VWS V14.01,2013-02-27 00:43:00,
2013-02-26 19:48:00,43.2,43.2,29.83,East,89,24.0,31.0,100,0.01,,OVC015,0.07,VWS V14.01,2013-02-27 00:48:00,
2013-02-26 19:53:00,43.3,43.3,29.84,East,98,19.0,19.0,100,0.02,,OVC015,0.08,VWS V14.01,2013-02-27 00:53:00,
2013-02-26 19:58:00,43.3,43.3,29.83,East,80,17.0,25.0,100,0.04,,OVC015,0.10,VWS V14.01,2013-02-27 00:58:00,
2013-02-26 20:03:00,43.4,43.4,29.82,ESE,106,21.0,24.0,100,0.07,,OVC006,0.13,VWS V14.01,2013-02-27 01:03:00,
2013-02-26 20:08:00,43.4,43.4,29.84,East,86,23.0,23.0,100,0.09,,OVC006,0.15,VWS V14.01,2013-02-27 01:08:00,
2013-02-26 20:13:00,43.4,43.4,29.83,East,90,28.0,28.0,100,0.10,,OVC006,0.16,VWS V14.01,2013-02-27 01:13:00,
2013-02-26 20:18:00,43.3,43.3,29.81,East,93,21.0,21.0,100,0.12,,OVC006,0.18,VWS V14.01,2013-02-27 01:18:00,
2013-02-26 20:23:00,43.3,43.3,29.83,East,82,19.0,19.0,100,0.13,,OVC006,0.19,VWS V14.01,2013-02-27 01:23:00,
2013-02-26 20:28:00,43.4,43.4,29.83,East,96,20.0,20.0,100,0.14,,OVC006,0.20,VWS V14.01,2013-02-27 01:28:00,
2013-02-26 20:33:00,43.6,43.6,29.81,East,90,26.0,26.0,100,0.15,,OVC006,0.21,VWS V14.01,2013-02-27 01:33:00,
2013-02-26 20:38:00,43.6,43.6,29.81,East,83,26.0,27.0,100,0.16,,OVC006,0.22,VWS V14.01,2013-02-27 01:38:00,
2013-02-26 20:43:00,43.7,43.7,29.81,East,86,23.0,23.0,100,0.16,,OVC006,0.23,VWS V14.01,2013-02-27 01:43:00,
2013-02-26 20:48:00,43.8,43.8,29.81,East,82,22.0,23.0,100,0.16,,OVC006,0.23,VWS V14.01,2013-02-27 01:48:00,
2013-02-26 20:53:00,43.9,43.9,29.79,ENE,68,25.0,27.0,100,0.17,,OVC006,0.25,VWS V14.01,2013-02-27 01:53:00,
2013-02-26 20:58:00,44.0,44.0,29.78,East,79,23.0,23.0,100,0.16,,OVC006,0.26,VWS V14.01,2013-02-27 01:58:00,
2013-02-26 21:03:00,44.0,44.0,29.79,East,93,27.0,27.0,100,0.15,,OVC005,0.28,VWS V14.01,2013-02-27 02:03:00,
2013-02-26 21:08:00,44.0,44.0,29.79,East,84,25.0,25.0,100,0.13,,OVC005,0.28,VWS V14.01,2013-02-27 02:08:00,
2013-02-26 21:13:00,44.0,44.0,29.78,East,90,23.0,23.0,100,0.14,,OVC005,0.30,VWS V14.01,2013-02-27 02:13:00,
2013-02-26 21:19:00,43.9,43.9,29.77,East,90,18.0,23.0,100,0.14,,OVC005,0.32,VWS V14.01,2013-02-27 02:19:00,
2013-02-26 21:24:00,44.1,44.1,29.76,ENE,67,21.0,25.0,100,0.16,,OVC004,0.35,VWS V14.01,2013-02-27 02:24:00,
2013-02-26 21:29:00,44.4,44.4,29.75,East,88,28.0,28.0,100,0.19,,OVC004,0.39,VWS V14.01,2013-02-27 02:29:00,
2013-02-26 21:34:00,44.5,44.5,29.74,East,90,16.0,28.0,100,0.21,,OVC004,0.42,VWS V14.01,2013-02-27 02:34:00,
2013-02-26 21:39:00,44.6,44.6,29.73,East,83,27.0,30.0,100,0.21,,OVC004,0.43,VWS V14.01,2013-02-27 02:39:00,
2013-02-26 21:44:00,45.0,45.0,29.72,East,94,27.0,30.0,100,0.20,,OVC004,0.43,VWS V14.01,2013-02-27 02:44:00,
2013-02-26 21:49:00,44.9,44.9,29.72,East,92,27.0,31.0,100,0.20,,OVC004,0.43,VWS V14.01,2013-02-27 02:49:00,
2013-02-26 21:54:00,44.8,44.8,29.71,East,89,24.0,28.0,100,0.20,,OVC004,0.44,VWS V14.01,2013-02-27 02:54:00,
2013-02-26 21:59:00,45.2,45.2,29.72,East,86,19.0,29.0,100,0.18,,OVC004,0.44,VWS V14.01,2013-02-27 02:59:00,
2013-02-26 22:04:00,45.1,45.1,29.70,East,90,34.0,34.0,100,0.18,,OVC004,0.46,VWS V14.01,2013-02-27 03:04:00,
2013-02-26 22:09:00,45.1,45.1,29.69,East,82,25.0,32.0,100,0.22,,OVC004,0.50,VWS V14.01,2013-02-27 03:09:00,
2013-02-26 22:14:00,45.3,45.3,29.69,ENE,72,28.0,32.0,100,0.21,,OVC004,0.51,VWS V14.01,2013-02-27 03:14:00,
2013-02-26 22:19:00,45.3,45.3,29.69,ENE,78,27.0,32.0,100,0.20,,OVC004,0.52,VWS V14.01,2013-02-27 03:19:00,
2013-02-26 22:24:00,45.2,45.2,29.68,East,84,25.0,25.0,100,0.19,,OVC004,0.54,VWS V14.01,2013-02-27 03:24:00,
2013-02-26 22:29:00,45.2,45.2,29.67,East,89,27.0,29.0,100,0.18,,OVC004,0.56,VWS V14.01,2013-02-27 03:29:00,
2013-02-26 22:34:00,45.2,45.2,29.67,East,86,22.0,24.0,100,0.15,,OVC004,0.57,VWS V14.01,2013-02-27 03:34:00,
2013-02-26 22:39:00,45.3,45.3,29.67,ENE,74,25.0,25.0,100,0.15,,OVC004,0.58,VWS V14.01,2013-02-27 03:39:00,
2013-02-26 22:44:00,45.5,45.5,29.67,ENE,74,22.0,25.0,100,0.18,,OVC004,0.61,VWS V14.01,2013-02-27 03:44:00,
2013-02-26 22:49:00,45.6,45.6,29.67,ENE,71,19.0,23.0,100,0.21,,OVC004,0.64,VWS V14.01,2013-02-27 03:49:00,
2013-02-26 22:54:00,45.5,45.5,29.67,ENE,78,18.0,22.0,100,0.22,,OVC004,0.66,VWS V14.01,2013-02-27 03:54:00,
2013-02-26 22:59:00,45.6,45.6,29.68,East,82,22.0,22.0,100,0.26,,OVC004,0.70,VWS V14.01,2013-02-27 03:59:00,
2013-02-26 23:04:00,45.6,45.6,29.67,East,82,23.0,23.0,100,0.24,,OVC004,0.70,VWS V14.01,2013-02-27 04:04:00,
2013-02-26 23:09:00,45.5,45.5,29.67,ENE,63,16.0,22.0,100,0.22,,OVC004,0.71,VWS V14.01,2013-02-27 04:09:00,
2013-02-26 23:14:00,45.6,45.6,29.67,ENE,76,18.0,18.0,100,0.21,,OVC004,0.72,VWS V14.01,2013-02-27 04:14:00,
2013-02-26 23:19:00,45.8,45.8,29.67,East,88,16.0,16.0,100,0.21,,OVC004,0.73,VWS V14.01,2013-02-27 04:19:00,
2013-02-26 23:24:00,46.1,46.1,29.67,East,96,17.0,17.0,100,0.20,,OVC004,0.74,VWS V14.01,2013-02-27 04:24:00,
2013-02-26 23:29:00,46.3,46.3,29.67,East,98,14.0,17.0,100,0.18,,OVC004,0.74,VWS V14.01,2013-02-27 04:29:00,
2013-02-26 23:34:00,47.1,47.1,29.66,ESE,118,12.0,12.0,100,0.19,,OVC004,0.76,VWS V14.01,2013-02-27 04:34:00,
2013-02-26 23:39:00,47.5,47.5,29.66,East,84,15.0,19.0,100,0.20,,OVC004,0.78,VWS V14.01,2013-02-27 04:39:00,
2013-02-26 23:44:00,47.1,47.1,29.64,East,84,11.0,14.0,100,0.17,,OVC004,0.78,VWS V14.01,2013-02-27 04:44:00,
2013-02-26 23:49:00,46.8,46.8,29.64,ESE,107,8.0,13.0,100,0.14,,OVC004,0.78,VWS V14.01,2013-02-27 04:49:00,
2013-02-26 23:54:00,47.2,47.2,29.63,ENE,78,12.0,13.0,100,0.12,,OVC005,0.78,VWS V14.01,2013-02-27 04:54:00,
2013-02-26 23:59:00,47.2,47.2,29.63,East,82,10.0,11.0,100,0.09,,OVC005,0.78,VWS V14.01,2013-02-27 04:59:00,